GFSNE_500_spd_000.txt.gz
Wind_Speed
73 74 66 53 46 48 48 51 46 47 42 36 38 40 42 42 40 43 43 43 44 49 51 53 61 60 60 62 61 63 64 65 70 76 80 78 75 70
68 66 64 51 45 45 49 47 47 42 45 42 41 40 41 41 41 44 43 45 47 50 52 56 58 60 62 62 63 64 64 68 74 78 76 74 66 58
65 63 49 38 40 44 48 45 45 42 46 44 43 43 41 40 43 45 44 48 50 53 58 60 58 61 62 62 64 64 65 72 76 75 71 64 54 52
62 60 50 43 44 44 42 43 40 42 47 45 44 44 40 42 41 43 45 49 53 55 59 55 62 62 62 63 64 64 68 74 73 68 63 54 49 53
55 56 51 48 46 46 52 48 42 40 46 44 48 43 43 41 42 46 46 48 52 56 57 57 61 62 62 62 63 66 71 71 68 60 51 47 50 54
56 57 54 49 47 51 44 44 43 41 42 45 45 42 46 40 46 43 45 48 51 54 54 58 61 62 61 63 64 69 72 69 61 53 43 48 49 52
67 60 55 48 47 52 46 49 45 42 46 39 41 44 45 43 46 42 45 47 50 55 55 58 61 61 61 62 65 71 69 64 55 42 43 46 45 49
70 60 60 50 46 49 49 51 46 46 47 43 40 45 45 45 44 42 46 48 52 53 55 60 63 62 61 62 66 69 63 58 46 39 43 43 43 44
60 60 59 51 48 48 47 51 43 46 43 48 40 45 46 46 43 44 46 49 50 53 58 62 63 61 61 64 67 65 59 51 36 41 42 44 43 39
60 56 57 51 47 46 46 49 44 42 41 44 46 45 43 43 43 45 47 44 52 56 58 62 61 61 62 65 67 61 55 39 35 41 41 42 41 36
58 51 51 50 44 42 44 45 46 41 43 50 42 46 43 41 42 45 45 51 53 54 58 62 61 61 63 67 64 58 45 30 36 41 41 43 39 33
51 44 39 44 39 38 44 43 41 43 43 46 44 45 43 42 41 43 46 50 49 54 58 59 60 61 64 66 61 50 33 35 39 42 46 41 36 29
46 39 33 33 37 34 40 41 42 45 41 42 42 44 41 40 38 42 45 45 51 54 57 57 59 61 65 59 56 39 37 37 40 44 45 39 33 28
43 37 31 37 35 36 39 41 42 43 38 37 40 39 39 36 37 39 46 48 52 54 55 56 58 62 64 53 41 38 42 41 42 44 43 42 33 24
44 44 39 36 37 38 35 40 42 40 38 37 36 36 37 37 38 41 46 48 51 53 54 55 58 63 57 43 33 38 40 42 42 42 43 37 25 20
37 39 40 30 33 37 33 36 41 37 34 34 35 34 40 39 36 41 45 48 50 51 52 54 59 59 48 37 35 38 40 41 43 42 40 27 21 15
36 38 39 29 30 29 31 36 36 34 33 34 37 33 40 34 36 38 42 45 48 48 50 53 59 49 39 32 37 40 43 43 42 38 29 21 15 19
40 35 34 26 31 32 34 39 38 33 31 32 36 37 36 31 36 37 39 43 45 47 49 54 55 46 38 35 38 41 44 40 37 27 22 23 20 17
43 44 36 34 33 33 33 37 37 30 30 34 34 33 28 34 36 34 37 41 43 45 49 54 47 38 34 39 40 41 38 34 30 26 22 21 21 21
31 44 40 35 31 30 30 32 31 27 27 30 25 23 31 34 31 31 36 38 40 44 51 48 38 30 34 37 39 36 29 30 32 32 30 27 18 8
29 34 35 30 26 23 22 25 24 25 29 30 21 30 32 30 27 31 33 36 39 44 48 38 29 31 33 37 36 35 28 28 27 27 28 21 15 16
37 32 30 37 27 19 17 26 22 21 23 18 25 27 25 25 26 29 32 35 39 45 39 28 27 30 35 37 36 33 29 33 29 21 21 25 23 21
33 36 28 27 24 20 23 17 25 17 16 22 25 23 23 22 24 28 30 34 40 41 30 25 28 30 36 36 33 28 28 29 26 26 27 26 26 22

GFSNE_500_spd_003.txt.gz
Wind_Speed
77 75 72 69 69 66 64 63 63 60 50 45 48 48 44 44 45 43 44 44 44 42 43 46 48 51 55 60 61 60 61 62 62 63 62 66 70 74
79 78 72 66 67 65 63 59 54 51 47 43 45 48 49 42 43 45 48 40 45 43 44 47 51 55 57 60 58 61 62 62 63 64 65 69 73 75
80 78 73 66 61 61 61 59 55 52 52 47 48 51 47 42 45 48 43 43 48 44 47 52 53 57 58 59 59 61 63 63 65 64 67 71 74 73
83 81 76 68 64 62 61 62 56 54 56 54 52 50 50 42 47 47 45 47 48 46 49 50 52 54 57 57 58 62 63 63 64 66 70 72 71 64
81 78 78 74 67 63 61 64 63 55 53 53 48 49 46 45 47 48 47 48 47 47 48 49 51 55 57 57 59 62 63 65 65 68 69 70 65 53
83 80 79 70 65 59 63 65 63 58 53 55 52 47 50 46 46 45 48 43 43 45 46 49 53 54 56 58 61 62 63 64 66 68 68 66 55 48
82 80 76 64 60 61 61 63 63 56 54 55 52 45 49 47 47 47 45 42 41 44 45 48 50 55 56 58 61 62 63 65 67 67 66 57 46 50
78 75 69 64 64 68 68 62 60 56 56 56 54 46 44 48 50 47 43 38 42 44 47 48 52 54 56 59 60 61 62 65 66 64 59 45 47 49
68 66 66 63 61 57 64 67 61 55 53 56 53 48 43 45 52 53 45 41 45 44 47 50 53 53 58 59 60 60 61 64 62 59 46 45 47 45
72 66 64 59 63 64 62 59 59 57 56 54 50 45 40 38 44 44 49 45 44 44 46 49 50 56 58 58 60 60 61 60 57 46 45 46 45 45
72 64 59 54 53 54 57 47 54 54 49 47 49 47 42 40 41 44 45 44 44 42 42 49 52 55 57 58 58 60 58 56 44 44 45 46 45 41
55 53 48 46 47 50 49 48 45 47 46 45 47 46 44 41 43 43 45 43 42 39 42 49 53 55 57 58 58 59 55 46 41 44 45 45 42 40
49 43 46 49 49 49 44 44 44 40 41 42 45 47 42 33 40 41 37 35 41 39 43 51 52 54 56 57 59 57 51 40 42 43 45 45 42 41
42 43 44 45 41 42 42 41 32 30 33 37 39 40 30 31 33 33 36 37 38 41 45 50 51 53 56 56 56 51 41 42 43 45 47 45 38 30
44 44 47 42 39 39 40 33 30 31 30 33 33 32 29 29 34 36 31 40 44 45 49 49 50 53 55 56 50 41 40 44 46 46 44 39 25 20
46 45 46 36 36 34 36 36 32 28 32 31 33 34 33 32 30 28 30 43 47 49 48 48 50 53 54 52 42 38 42 43 45 38 34 27 23 21
44 44 40 41 38 32 33 34 25 26 27 26 29 29 32 29 27 33 38 45 49 47 45 47 49 51 51 44 36 38 41 44 39 30 29 27 17 16
40 42 42 40 35 30 27 28 18 18 21 28 28 26 26 25 28 34 41 44 46 44 44 45 47 49 45 40 40 41 44 42 31 27 24 22 25 22
36 33 35 39 31 31 24 19 19 20 31 35 25 25 24 26 30 36 38 44 43 40 41 44 48 44 39 37 40 42 41 35 30 30 23 21 19 20
22 24 21 33 26 29 20 19 19 21 19 19 25 24 25 26 29 36 39 41 37 37 41 44 43 38 35 37 42 41 29 25 25 25 26 25 23 23
31 17 13 19 32 27 21 19 20 22 19 27 25 25 18 29 31 35 37 34 33 37 41 42 36 33 35 39 38 29 24 23 28 28 28 29 26 21
33 22 14 14 20 22 21 15 17 17 19 16 20 21 24 27 30 33 32 30 33 37 40 35 30 31 36 36 28 27 30 35 34 33 32 21 18 22
28 23 20 18 15 21 15 13 11 19 17 24 24 22 27 27 28 29 26 28 32 37 33 27 28 33 33 28 29 30 32 34 39 42 36 28 28 27

GFSNE_500_spd_006.txt.gz
Wind_Speed
74 76 75 74 74 75 72 68 69 70 61 53 56 55 50 54 48 47 50 50 44 43 46 46 49 48 50 49 51 54 56 58 60 61 60 62 59 58
76 78 79 78 78 78 73 69 65 66 61 54 57 55 56 55 50 48 48 52 48 44 46 46 50 50 53 50 50 52 55 58 60 59 60 61 59 59
77 77 76 76 78 76 74 69 68 65 61 62 58 57 56 58 51 47 49 50 51 45 46 47 51 52 51 49 50 53 55 59 58 59 60 59 59 61
84 84 74 63 68 77 77 73 65 63 58 63 55 56 57 57 51 47 51 52 54 50 47 48 52 52 49 50 52 54 57 60 58 59 59 59 60 63
86 88 87 85 82 80 79 78 70 69 66 62 52 54 59 58 57 49 47 50 50 49 47 50 47 47 48 49 52 55 59 58 59 59 58 59 62 64
82 81 80 81 80 79 77 76 71 65 59 58 53 59 54 59 55 53 51 48 51 51 52 46 44 46 45 49 52 56 59 57 58 59 58 59 62 65
78 74 74 73 73 73 73 72 65 60 56 61 55 56 56 54 54 53 48 47 48 53 54 46 42 45 45 49 52 56 57 57 58 58 58 61 62 61
80 76 75 74 71 69 65 64 61 58 55 53 52 56 55 56 50 50 49 50 48 50 55 46 44 45 47 50 53 55 57 57 57 58 60 61 61 52
81 80 77 74 71 69 64 65 61 57 54 59 59 55 54 51 51 46 48 44 43 45 53 51 48 48 50 52 53 55 57 57 57 59 60 59 54 49
78 78 77 74 71 69 66 62 59 57 55 57 57 54 50 53 49 45 47 41 38 42 44 45 45 46 52 52 53 56 56 55 56 59 58 55 49 48
78 77 75 74 70 66 64 55 48 51 50 46 44 46 46 49 47 44 47 43 37 40 42 42 43 48 50 52 55 55 54 54 56 56 54 48 48 46
78 75 71 70 66 60 54 49 46 41 38 44 43 43 43 43 43 38 43 37 36 41 42 37 43 49 51 54 54 54 51 54 55 52 47 47 47 47
74 70 63 58 53 48 49 46 41 44 41 39 41 39 41 39 41 41 38 39 36 35 43 40 41 45 50 54 53 50 51 54 51 46 45 45 46 40
59 57 51 42 41 46 51 47 44 38 37 38 39 38 34 36 32 36 28 36 31 32 40 36 46 53 53 52 49 49 52 53 45 42 43 45 36 33
49 45 40 36 41 44 44 45 40 34 38 34 32 25 20 24 24 27 22 27 32 34 35 38 47 52 50 49 46 50 51 47 43 42 44 38 30 31
41 42 42 40 39 38 39 47 39 36 34 22 27 23 15 22 16 23 24 24 30 38 38 44 48 48 47 45 48 48 43 40 42 44 36 30 29 25
35 39 41 40 37 32 33 39 33 31 22 24 21 21 23 21 22 26 24 25 29 31 39 43 45 46 46 47 47 40 39 42 42 36 27 28 26 24
31 35 36 33 27 26 29 34 27 24 24 24 19 16 21 24 19 22 23 25 28 36 40 43 46 45 46 47 42 37 40 40 33 27 26 25 25 23
28 30 30 24 18 17 27 30 27 23 28 24 19 16 19 21 17 20 24 28 31 36 40 44 42 42 43 40 40 41 39 30 27 27 27 29 31 28
25 25 20 16 15 19 23 28 22 17 15 16 14 20 11 18 14 20 24 28 34 37 42 39 40 41 37 37 42 40 26 30 29 31 31 30 30 30
23 21 19 18 6 9 20 20 15 14 13 13 15 17 16 17 18 21 25 30 33 38 36 37 38 35 37 38 32 34 37 36 39 38 38 36 33 29
22 22 24 25 17 6 18 19 14 14 14 22 25 21 14 13 18 22 26 29 33 32 33 33 32 34 28 31 35 39 46 47 44 38 32 28 29 25
23 23 25 25 14 6 16 20 14 11 14 15 18 19 16 17 17 22 23 28 28 29 30 29 27 23 29 34 40 47 51 46 38 32 28 26 22 17

GFSNE_500_spd_009.txt.gz
Wind_Speed
69 62 64 65 67 69 69 69 71 71 69 66 63 54 54 52 48 55 53 50 48 48 49 44 45 46 49 51 48 50 51 49 51 50 51 54 57 60
77 76 76 69 66 65 67 69 70 72 71 66 65 59 51 46 54 53 52 48 47 49 50 51 51 48 50 50 49 49 50 50 53 52 53 57 59 60
78 78 77 77 78 76 71 70 70 73 72 66 70 67 63 64 62 55 50 52 50 50 48 49 50 49 50 48 43 50 50 52 53 53 54 57 58 60
81 81 79 77 77 76 74 73 70 67 67 68 62 59 57 55 53 52 50 48 50 48 46 50 49 50 54 51 46 48 50 51 51 53 56 57 57 59
79 78 77 76 74 73 72 72 70 66 64 65 64 61 56 52 51 51 50 51 51 46 50 50 51 52 58 52 52 48 49 51 52 55 56 55 57 59
78 76 76 76 75 72 70 68 68 68 66 63 63 60 58 56 50 53 52 50 50 46 45 53 50 48 55 58 57 46 50 49 52 55 55 57 59 59
81 81 80 77 75 74 73 71 69 67 65 65 63 59 59 57 58 60 55 44 45 45 42 47 51 50 52 53 49 44 49 48 53 56 57 60 58 58
77 76 77 75 74 73 71 69 68 68 66 64 65 63 59 55 64 63 54 45 47 46 45 44 47 50 48 57 51 47 50 52 56 57 60 60 57 57
73 74 72 71 71 73 71 71 69 69 68 66 66 62 59 55 57 54 52 41 46 53 46 43 45 43 46 50 46 45 53 54 58 60 60 58 56 59
74 74 73 73 75 78 77 74 72 71 70 66 63 60 56 54 52 49 46 47 45 46 44 47 42 40 41 43 44 53 52 55 60 59 58 56 57 59
77 78 80 80 81 83 83 82 77 70 68 65 61 55 54 50 48 44 36 49 46 39 40 41 41 40 40 41 43 47 51 55 55 56 55 55 57 56
81 80 81 82 81 78 77 75 73 64 61 58 52 48 47 44 41 38 38 40 42 40 36 42 36 32 41 43 44 49 51 55 54 55 54 55 55 48
78 73 71 68 65 61 59 58 55 49 47 46 44 37 36 37 37 35 31 34 35 40 41 41 38 38 40 42 50 51 55 55 53 53 53 53 49 47
68 62 58 57 52 50 50 45 44 46 42 42 34 27 21 31 33 29 25 38 39 35 31 30 33 31 37 41 43 50 53 51 51 52 50 47 47 45
58 53 48 44 42 41 40 38 36 38 38 35 31 24 18 24 28 27 22 27 31 26 27 28 35 35 38 40 46 48 47 48 50 49 45 46 44 33
45 40 37 36 33 34 34 28 26 27 28 29 29 20 21 18 23 14 13 14 16 22 22 27 32 37 38 44 44 45 45 48 48 47 45 43 31 28
33 31 29 28 27 30 29 24 20 19 23 26 26 20 22 20 13 6 13 16 14 17 19 26 32 36 40 41 43 43 45 46 45 44 40 31 27 24
25 23 23 22 24 26 23 21 18 14 18 25 22 18 20 25 23 21 13 11 15 18 21 26 31 37 38 39 43 43 41 41 42 37 30 31 31 26
21 20 21 20 20 19 17 15 18 16 22 17 16 18 20 22 17 21 11 10 15 19 24 28 35 36 37 40 41 39 38 35 34 36 35 33 35 37
19 20 19 17 16 14 11 14 11 15 18 15 12 14 19 13 18 19 15 15 16 18 27 31 33 36 38 37 36 32 32 35 38 41 43 43 44 43
18 21 18 16 15 6 6 6 8 15 15 11 18 11 14 11 17 10 13 15 17 25 28 30 32 33 32 30 31 38 44 46 49 52 47 40 37 32
17 21 19 17 10 5 6 2 12 13 9 16 11 10 11 15 18 8 10 15 22 25 27 28 28 26 26 32 41 46 50 53 51 39 28 27 29 28
19 22 18 14 9 7 3 3 11 7 9 10 13 14 13 14 6 8 12 16 20 22 23 22 20 24 33 42 48 53 53 44 26 15 15 14 13 12

GFSNE_500_spd_012.txt.gz
Wind_Speed
79 80 81 80 77 76 74 71 71 74 73 70 70 64 65 66 63 59 56 53 49 50 53 50 48 43 41 42 43 44 48 51 49 51 51 47 48 50
84 85 83 81 80 78 77 77 76 74 76 69 68 69 67 68 64 62 62 58 54 55 55 53 52 48 48 46 47 48 50 52 50 47 47 48 49 50
85 84 84 83 82 79 78 78 78 77 77 74 68 64 62 61 59 58 55 54 49 47 48 49 49 47 47 46 49 49 49 52 55 53 51 49 49 50
85 84 82 80 80 80 80 78 77 75 74 75 68 63 57 54 54 54 54 54 50 48 54 50 51 52 48 48 48 52 52 47 59 56 57 51 49 50
84 83 82 80 78 76 75 75 74 73 71 71 68 59 56 53 53 51 50 49 49 50 57 56 53 48 47 47 48 44 54 48 60 64 58 53 51 52
81 79 78 78 78 74 72 70 70 68 66 67 66 61 55 51 53 51 50 50 51 54 47 55 56 53 50 47 46 49 45 60 61 68 61 55 52 53
71 70 70 69 69 70 71 69 69 67 65 64 63 60 56 54 54 52 52 51 47 49 45 46 54 49 40 43 46 50 47 52 61 66 57 53 55 53
70 70 70 70 71 72 71 71 68 67 66 66 65 62 57 56 55 55 53 50 50 49 46 50 43 50 51 55 48 51 47 49 54 61 56 52 53 54
75 75 73 73 74 76 74 73 71 72 73 71 69 65 63 59 58 56 56 55 50 51 54 40 47 40 44 49 44 49 53 57 56 55 52 59 58 58
84 83 82 80 81 84 81 79 75 75 74 73 73 69 66 62 61 59 57 55 51 48 51 44 42 45 44 50 52 52 49 48 54 53 51 55 55 57
85 83 80 79 78 79 80 79 77 74 71 71 68 67 64 61 59 58 55 53 46 44 44 47 44 41 43 45 43 43 47 44 49 51 51 57 56 59
82 77 73 71 69 68 68 66 66 65 63 60 56 55 55 53 52 51 47 43 38 35 34 40 41 41 42 41 38 35 38 43 43 49 53 56 59 59
77 71 65 62 60 58 58 56 55 53 48 48 46 47 46 46 45 39 36 35 34 34 34 37 33 37 41 35 38 34 38 42 42 46 49 54 55 53
67 60 55 51 48 45 44 41 40 41 40 39 37 32 30 32 31 29 29 30 32 36 35 41 35 33 34 36 35 38 38 38 42 46 50 50 50 51
51 50 47 42 38 34 31 30 31 33 32 24 24 18 18 20 24 27 25 29 33 35 31 28 30 31 27 31 33 34 35 38 42 45 46 47 49 45
40 42 44 36 29 24 22 23 24 23 19 19 18 16 15 15 24 18 18 24 24 29 29 31 25 21 20 27 30 34 38 42 44 44 46 47 43 41
31 32 32 31 23 18 16 16 16 17 16 15 16 15 14 23 16 12 14 16 16 16 17 17 17 19 22 28 30 34 38 41 43 45 44 42 38 32
29 27 25 24 17 12 10 11 15 16 13 16 15 14 17 16 9 11 14 14 16 13 12 15 17 20 24 28 34 37 39 42 42 42 38 33 33 31
27 23 21 16 12 9 8 8 11 15 13 14 14 19 14 13 11 14 16 22 14 9 11 16 19 22 27 32 35 37 38 36 33 33 35 38 41 41
24 19 13 12 12 8 4 4 10 7 6 12 15 12 11 13 13 12 24 19 11 9 12 15 22 28 30 31 30 28 27 31 37 42 44 47 49 48
16 15 8 15 11 8 5 6 7 7 8 7 6 9 9 11 11 17 17 12 10 12 16 20 23 25 26 26 27 30 35 41 46 48 49 46 40 35
11 9 15 14 10 7 2 7 8 11 12 15 13 13 6 14 14 10 4 5 9 14 16 19 22 21 22 28 35 41 45 48 45 37 25 18 14 12
8 7 17 14 13 6 3 5 15 17 16 14 14 13 11 15 8 1 5 8 10 13 16 15 18 24 31 38 43 44 41 33 22 16 18 18 15 14

GFSNE_500_spd_015.txt.gz
Wind_Speed
93 94 93 93 90 87 85 84 85 88 86 81 80 77 73 71 70 70 67 65 60 60 57 57 55 55 52 53 52 54 51 47 45 47 46 44 46 46
96 94 93 93 94 90 88 85 83 83 88 85 83 80 76 73 70 68 68 64 65 64 60 54 54 54 53 55 57 60 54 51 48 49 48 47 51 50
98 96 94 94 92 88 86 85 82 77 78 75 74 70 69 67 64 63 62 63 63 61 62 60 57 54 54 50 55 57 56 51 50 49 51 55 53 52
92 85 80 77 76 75 75 74 74 74 76 77 72 69 64 62 59 59 56 57 57 57 61 59 58 57 54 50 55 55 53 49 49 48 49 52 54 53
76 72 69 68 67 67 68 69 69 69 70 73 69 63 64 60 58 56 54 54 52 52 56 58 59 57 53 53 55 55 54 55 50 48 51 57 55 56
68 66 66 67 68 69 69 70 70 70 70 71 70 64 63 59 61 58 56 56 54 56 57 60 63 60 61 62 58 48 53 50 53 57 49 52 60 67
67 68 70 72 76 78 78 76 78 78 76 74 71 67 62 59 59 57 57 54 53 54 56 58 61 64 63 55 55 56 59 57 57 49 49 54 54 64
76 78 79 80 81 82 82 83 83 85 82 79 76 72 66 63 60 59 60 58 54 55 57 54 58 57 64 62 46 47 52 52 50 54 51 51 50 59
84 85 85 87 89 89 87 85 83 82 81 80 80 75 71 67 65 63 63 62 58 56 57 51 51 53 56 55 48 43 48 51 54 60 50 53 53 52
93 92 92 91 90 88 81 77 74 72 69 68 71 70 67 64 63 63 61 60 55 53 54 51 50 47 51 53 60 39 42 48 51 53 52 49 54 55
95 91 88 85 84 83 77 71 66 61 57 57 56 56 55 52 51 56 58 59 55 51 52 52 48 44 46 47 43 39 42 43 41 49 54 54 52 50
89 82 77 74 71 69 66 62 57 51 47 43 44 45 44 42 42 47 49 51 49 46 45 42 40 40 42 42 45 47 43 40 39 44 40 41 43 44
70 63 57 54 53 52 51 50 48 44 36 32 30 31 34 35 36 40 43 42 33 28 25 28 29 33 37 32 33 34 39 38 38 35 36 36 41 39
49 43 41 41 42 42 40 40 38 34 26 21 18 20 23 27 30 31 29 25 21 21 22 24 26 27 32 31 31 34 36 33 36 34 34 37 39 41
43 41 40 40 38 35 33 32 29 23 18 14 12 13 19 20 23 24 18 9 17 18 23 21 23 28 29 32 33 32 34 39 38 34 37 40 43 46
37 34 35 35 34 30 25 24 18 13 9 9 12 15 18 19 16 12 13 14 18 22 23 20 24 26 26 26 28 32 34 27 29 32 35 40 43 45
33 31 32 30 29 25 19 11 8 7 10 12 13 15 16 14 12 10 12 13 18 17 22 23 25 25 25 23 21 20 22 24 29 34 38 41 43 44
32 31 28 26 23 16 6 5 3 8 13 17 12 11 14 9 3 9 13 8 10 14 16 20 20 20 20 19 20 23 26 30 35 39 41 43 42 37
29 27 23 21 14 4 4 1 7 15 19 16 12 11 8 5 9 8 8 8 11 14 17 17 17 18 18 19 22 26 30 33 37 38 37 34 32 33
27 23 20 15 3 5 2 4 12 18 16 4 6 11 11 6 6 2 10 14 17 13 11 12 15 17 19 22 26 29 31 32 32 31 33 37 40 43
22 19 16 4 6 2 2 9 15 7 6 9 7 6 6 6 5 6 12 19 15 12 11 13 17 19 22 24 26 25 26 29 35 38 41 44 44 44
15 14 7 6 5 3 5 13 7 7 11 8 9 11 9 8 11 13 12 10 10 12 16 17 17 18 18 20 24 27 32 35 38 40 41 39 32 21
10 8 7 8 5 1 11 10 7 13 12 16 18 17 16 13 9 6 7 9 10 9 10 10 13 18 22 26 30 33 35 34 31 30 26 20 16 15

GFSNE_500_spd_018.txt.gz
Wind_Speed
98 100 102 102 101 101 99 92 91 99 100 92 84 80 78 76 74 74 74 74 73 75 77 75 66 63 60 56 60 56 56 58 58 63 59 53 52 50
104 104 103 101 100 97 89 79 75 78 83 75 71 71 67 67 67 69 70 70 70 73 73 74 73 71 67 62 52 55 51 53 57 59 64 57 56 56
105 101 98 95 88 78 71 68 67 70 74 64 66 63 65 67 67 69 70 71 71 69 72 72 71 71 71 72 69 66 60 55 56 56 63 65 63 59
97 90 85 78 70 67 66 66 67 68 72 71 62 61 62 64 66 66 66 68 68 66 69 68 67 67 68 70 70 69 69 63 59 57 58 63 63 58
84 80 76 73 71 71 71 71 72 74 77 79 76 72 70 68 66 65 65 63 61 61 64 66 65 65 64 63 65 65 64 66 64 62 59 56 62 55
80 78 78 78 78 77 78 79 82 84 85 87 85 82 78 74 75 72 66 65 64 62 60 62 65 63 63 66 66 65 64 66 68 67 66 62 56 56
79 80 82 83 85 87 88 87 90 92 92 92 93 91 87 82 80 78 76 67 60 61 60 58 61 60 62 61 62 64 64 66 65 69 52 54 58 56
87 89 91 93 95 96 98 98 98 99 97 94 91 87 81 76 72 71 73 71 63 61 58 55 56 56 57 58 59 62 61 61 66 61 63 57 57 53
93 93 92 91 92 93 92 93 92 89 87 85 80 75 71 65 63 61 62 64 64 60 62 55 57 54 55 57 59 61 60 57 62 55 58 56 58 60
81 77 76 75 76 76 76 74 73 70 67 67 66 64 61 56 52 51 51 53 56 58 64 56 58 57 59 60 59 58 59 58 55 54 53 45 45 57
68 66 68 67 64 62 62 59 55 50 48 47 49 49 51 46 42 42 40 44 46 50 55 58 55 53 56 56 59 59 57 56 51 45 38 35 44 52
61 61 59 59 57 54 52 49 44 39 36 32 35 38 40 35 31 32 33 35 37 36 41 49 51 52 53 51 53 54 52 53 46 44 51 35 37 39
59 55 53 53 50 47 45 43 41 37 30 26 23 24 25 22 21 24 26 28 27 26 28 38 40 44 46 43 43 47 49 45 39 41 51 41 40 40
56 52 50 47 43 42 42 42 39 33 26 17 11 11 13 15 17 19 22 24 22 9 14 19 22 27 30 32 35 38 36 36 39 38 44 43 42 42
49 46 46 42 41 41 41 38 32 26 15 6 3 7 9 13 18 23 21 14 7 5 11 11 19 18 19 24 26 29 38 32 30 34 34 38 39 36
42 42 43 40 41 40 37 32 25 13 6 7 7 8 12 16 15 11 10 5 8 10 7 13 14 20 22 28 29 34 34 27 29 33 34 35 37 36
42 41 40 36 36 35 32 24 10 9 11 13 13 8 11 10 9 7 2 10 11 10 11 11 11 16 18 21 24 24 27 30 29 31 36 33 32 33
40 40 35 33 32 28 16 8 11 15 19 22 18 7 6 8 6 2 4 5 2 2 4 7 10 10 12 14 13 15 18 22 24 24 25 27 28 32
37 36 30 29 26 11 6 10 13 20 25 23 7 1 10 5 5 4 3 0 3 5 5 9 12 14 15 15 15 15 15 17 19 23 28 33 37 36
35 31 25 22 9 5 9 14 22 25 19 5 5 5 5 4 4 4 5 5 9 13 14 13 12 12 12 15 17 21 23 25 27 28 29 29 27 27
28 25 20 9 3 7 12 21 26 14 6 6 6 2 2 5 3 6 9 11 12 11 9 9 11 13 16 19 21 21 22 22 23 23 24 25 28 32
23 16 11 2 3 10 19 25 14 12 9 5 4 6 9 13 13 8 6 9 10 10 12 15 16 16 15 16 17 19 20 22 23 26 29 32 35 37
16 10 3 3 5 15 23 16 15 18 21 20 19 17 13 9 5 1 5 9 11 11 11 11 12 14 16 18 21 25 27 29 31 30 29 29 29 30

GFSNE_500_spd_021.txt.gz
Wind_Speed
91 94 98 102 104 105 104 102 102 106 106 96 89 78 72 68 64 64 67 70 72 74 76 77 81 82 85 78 73 68 63 61 66 63 62 63 63 64
96 99 101 102 102 101 98 92 87 87 88 75 70 68 63 59 59 59 61 62 63 69 75 78 80 82 85 83 91 72 66 61 52 59 63 63 61 65
99 99 100 100 96 91 87 84 83 84 87 75 74 68 66 64 61 60 58 58 57 59 63 69 73 76 78 82 85 89 89 73 70 57 52 57 60 64
98 98 95 91 86 85 85 85 86 87 89 87 78 75 74 72 70 68 66 65 63 61 61 62 65 68 71 74 80 85 87 82 82 74 63 57 58 59
94 91 88 90 91 92 91 92 92 93 94 95 91 85 83 81 80 77 74 72 71 69 67 67 65 63 66 66 66 72 78 79 81 81 75 71 61 65
87 89 92 92 91 89 88 86 87 88 89 92 93 94 92 89 89 87 84 82 80 79 76 71 69 68 65 66 62 64 66 71 69 73 75 79 72 71
88 92 91 88 84 82 79 76 76 76 77 78 78 79 80 84 87 89 91 87 83 80 77 72 72 70 67 62 61 56 60 57 61 66 65 71 73 72
92 88 82 78 74 69 67 71 73 72 72 72 69 68 63 63 64 68 72 71 68 66 67 64 67 67 69 63 59 60 57 59 55 57 62 65 64 60
87 80 72 71 66 64 66 63 61 61 62 62 56 50 48 46 48 48 52 55 55 55 56 57 58 59 64 64 59 58 59 60 58 58 52 53 54 57
78 72 69 62 63 67 64 60 56 51 50 48 49 47 44 40 39 36 36 40 43 42 46 47 48 52 59 62 59 57 56 56 52 51 48 47 47 47
69 66 62 60 63 62 60 56 50 47 46 45 44 43 42 36 33 30 27 32 28 27 35 39 38 46 55 60 59 56 52 50 49 46 44 44 43 38
63 59 58 60 58 55 57 53 49 46 42 38 36 35 35 31 25 22 20 19 16 14 28 31 32 39 48 56 57 55 53 50 48 48 46 43 38 37
60 56 56 54 52 52 54 51 48 44 39 33 27 24 21 19 18 15 18 17 11 10 20 23 26 32 39 46 54 54 52 49 47 45 44 41 38 37
60 54 51 50 48 50 50 46 44 39 32 24 14 9 13 17 19 17 15 16 13 9 13 17 20 26 32 40 46 49 48 45 43 43 41 40 37 41
57 53 49 47 45 47 44 42 37 24 15 12 13 13 13 12 13 15 19 16 6 1 8 11 18 26 30 34 39 41 42 40 40 41 40 37 42 43
51 47 44 41 43 42 38 33 18 15 16 15 13 13 13 12 15 9 4 2 4 2 4 5 8 15 19 25 29 31 32 33 32 35 37 41 43 38
47 43 36 34 34 32 25 14 15 19 23 27 24 14 11 10 4 1 1 8 11 11 3 11 14 16 20 23 26 27 27 28 31 38 34 38 40 35
40 37 31 31 27 17 11 14 20 27 33 28 16 10 6 2 1 3 9 9 4 5 9 9 10 15 18 22 25 24 26 30 33 38 32 32 35 35
41 33 30 24 16 10 12 18 26 33 21 15 11 6 3 6 7 8 7 7 9 13 10 8 10 10 10 15 18 19 25 29 31 31 29 29 31 33
33 30 24 16 9 11 19 29 30 17 14 12 10 13 12 12 9 7 9 13 12 11 11 12 13 14 14 14 15 16 17 19 21 23 25 26 28 29
28 24 16 8 8 15 26 23 17 17 18 18 17 13 12 14 14 13 11 10 6 4 5 5 6 8 10 11 13 16 19 21 23 25 28 30 32 33
24 15 7 5 11 21 18 18 21 23 22 21 20 19 20 17 14 10 6 3 3 5 6 8 9 10 11 12 12 13 13 14 13 13 16 19 21 24
15 8 5 10 17 16 18 19 19 20 21 20 15 11 9 8 7 6 5 6 9 9 8 8 8 9 8 10 12 14 16 19 21 23 25 27 29 31

GFSNE_500_spd_024.txt.gz
Wind_Speed
86 88 91 95 97 99 102 105 109 112 110 102 102 97 99 92 84 77 73 69 66 69 70 73 76 79 84 91 95 103 98 81 74 80 78 54 57 66
90 93 95 98 100 102 103 102 100 101 106 98 93 89 91 91 87 84 79 71 68 67 68 67 67 68 70 76 87 93 92 102 97 81 83 63 62 68
93 97 99 101 102 102 100 99 99 99 102 91 87 80 82 86 87 88 87 81 74 72 70 68 65 63 63 65 68 82 87 95 104 105 92 74 64 65
98 100 101 101 98 96 95 93 94 93 94 91 82 76 69 69 75 81 85 88 85 79 76 72 69 66 64 61 60 62 77 78 94 101 89 93 74 64
99 99 98 96 92 88 90 90 89 87 83 82 72 68 66 63 67 69 72 73 81 88 83 79 76 73 69 64 62 63 62 69 72 84 91 95 97 73
96 95 91 86 88 89 86 84 80 78 74 71 71 71 64 62 66 68 69 67 73 76 84 87 83 79 76 71 67 64 64 64 65 69 70 80 90 85
92 87 83 86 87 85 80 75 73 70 68 72 70 65 61 60 59 58 60 56 55 63 71 80 86 85 81 79 75 71 69 69 67 63 60 61 69 76
83 79 83 86 84 77 71 70 68 68 68 65 63 59 56 56 56 54 52 46 41 39 55 61 70 78 82 82 81 79 75 72 69 63 59 57 63 67
80 81 82 83 76 70 66 64 62 61 60 63 58 55 55 52 53 49 45 42 34 30 37 42 50 59 65 67 68 68 67 68 68 62 57 54 55 55
81 83 84 74 69 67 64 59 55 55 57 57 56 56 55 49 47 42 35 30 24 22 27 28 35 42 49 51 53 54 57 63 63 59 54 48 45 46
80 84 75 67 66 64 61 57 53 51 53 50 51 51 49 43 39 34 27 21 8 8 16 23 25 29 35 38 42 46 50 55 57 53 49 46 45 43
81 76 67 65 63 59 57 55 53 50 45 40 40 39 36 29 26 30 29 19 10 2 11 19 20 20 21 27 32 37 41 45 50 47 44 42 42 39
78 66 62 61 57 53 53 51 49 43 35 29 22 20 20 21 25 27 29 22 14 7 10 11 13 14 13 20 25 31 35 42 44 42 39 35 32 36
68 59 56 54 50 48 44 43 39 27 19 19 20 21 22 23 24 24 24 24 19 6 6 7 9 10 11 15 19 24 28 34 37 35 33 31 31 34
59 54 50 43 43 38 38 34 21 18 20 23 27 29 26 22 21 24 19 12 10 4 2 1 6 10 11 15 19 21 25 30 31 31 31 31 32 31
51 46 41 41 36 34 29 20 19 23 30 33 21 18 21 19 15 11 11 9 8 5 8 8 7 6 13 16 17 21 25 27 28 28 28 29 30 32
46 45 42 32 30 25 20 21 25 32 35 25 15 14 13 11 11 11 12 13 14 13 9 3 3 4 8 10 15 19 23 26 26 27 28 31 34 37
43 40 33 29 22 15 16 22 31 30 17 15 14 13 11 11 11 14 13 9 9 9 9 5 8 10 10 15 17 18 23 26 26 29 30 32 36 40
38 33 30 22 15 15 22 28 17 16 14 15 15 13 13 12 11 11 12 14 15 15 15 12 12 9 14 15 18 21 22 25 28 28 31 31 34 34
31 28 20 15 15 20 24 13 14 15 17 17 18 19 17 17 18 18 18 16 13 12 12 13 15 15 12 17 21 23 26 26 27 28 28 33 33 35
25 18 13 13 18 21 11 13 13 14 14 16 16 16 17 17 17 15 14 12 11 9 7 6 6 7 9 11 14 16 17 21 25 27 29 31 30 28
16 10 10 16 17 9 12 13 13 13 15 15 13 12 10 8 5 4 3 3 3 3 3 2 2 5 8 10 12 12 13 15 18 21 22 24 27 27
8 7 13 15 8 10 12 12 13 13 13 11 11 11 10 9 8 7 7 6 6 5 4 4 4 4 4 6 8 11 16 21 20 22 24 27 28 29

GFSNE_500_spd_027.txt.gz
Wind_Speed
83 86 88 90 91 93 97 102 109 110 106 101 102 100 103 104 97 93 91 88 87 86 85 84 82 77 74 74 80 84 90 95 101 101 93 98 97 86
87 89 90 91 95 99 103 107 109 110 110 100 96 91 86 88 91 91 87 84 81 80 82 84 83 81 75 75 74 76 78 83 90 97 105 108 93 101
89 91 94 98 101 104 107 107 105 102 103 95 88 81 79 80 79 81 78 73 69 67 67 69 74 78 80 77 75 73 73 72 74 84 95 106 106 88
92 96 99 102 105 106 104 101 98 95 93 92 83 79 74 70 67 67 68 70 72 69 67 68 70 71 74 80 77 74 71 70 69 69 74 85 90 103
97 100 102 104 103 101 98 94 90 88 88 88 81 73 69 65 64 66 68 67 64 64 66 68 70 71 73 74 80 77 73 71 69 67 66 66 79 91
101 102 100 99 98 93 89 86 85 87 83 77 72 69 66 61 62 64 61 57 56 59 63 61 61 64 66 72 77 80 76 74 70 66 61 61 60 78
99 97 96 93 88 84 85 84 85 83 75 69 67 65 62 60 60 61 60 55 50 55 55 52 53 52 51 60 70 81 80 77 74 68 65 61 57 55
94 91 87 82 81 81 83 84 80 75 71 68 64 62 59 60 59 57 57 51 40 38 45 37 43 38 39 45 60 72 82 79 76 72 67 62 58 55
88 84 79 78 79 82 83 75 69 66 66 63 60 57 59 57 58 52 44 39 32 26 33 24 28 27 29 33 46 61 76 80 78 74 70 65 59 55
80 79 78 78 81 83 76 68 63 61 56 55 54 54 56 53 45 36 26 21 17 20 24 13 18 22 28 28 34 47 59 75 77 74 71 68 63 58
77 76 80 81 82 72 68 65 60 53 48 45 47 47 40 34 33 30 29 27 20 19 21 22 18 17 20 20 24 33 42 53 62 67 69 69 67 62
73 76 79 82 69 62 62 58 52 45 39 35 31 29 32 34 37 40 38 28 13 10 19 24 18 16 15 14 16 21 26 34 40 45 51 55 57 54
76 76 78 65 57 54 52 52 45 40 29 23 26 30 34 39 39 37 35 34 21 14 19 17 13 13 9 9 8 11 17 23 28 32 37 42 44 43
79 78 61 51 49 51 47 42 39 28 24 27 31 38 36 35 33 33 26 23 16 8 11 13 11 11 6 5 6 7 10 16 21 25 31 36 39 38
79 59 46 45 45 39 40 36 27 26 31 37 34 27 25 22 17 16 16 10 15 9 8 10 10 10 5 2 3 10 16 22 26 31 34 33 36 34
54 42 40 39 37 37 32 27 29 35 36 22 19 18 15 14 15 17 19 19 19 17 17 13 9 7 3 4 7 15 23 29 31 31 30 29 29 32
39 37 36 33 31 27 23 27 34 30 21 20 19 19 17 16 18 17 17 17 16 15 12 7 9 2 2 2 9 18 24 29 30 30 29 26 31 32
37 35 30 29 23 19 23 27 20 18 16 17 19 19 17 17 18 16 18 18 20 21 18 7 7 11 10 12 17 21 24 27 28 28 28 28 29 32
35 29 28 21 17 22 22 16 14 14 15 16 17 17 17 16 15 16 19 20 19 19 21 17 8 10 12 12 13 17 22 24 25 27 28 28 30 33
29 26 19 14 20 17 14 14 13 13 13 15 16 16 16 16 17 18 18 17 16 16 16 16 16 8 10 13 12 13 21 27 23 25 22 21 23 32
20 17 13 18 14 12 14 12 12 13 14 15 15 15 14 12 12 11 12 11 9 9 10 10 11 13 11 15 18 17 18 18 18 19 22 23 21 22
14 11 16 13 13 13 13 13 15 16 17 17 17 16 16 15 14 12 10 7 5 4 4 6 6 6 9 12 15 18 21 21 22 22 25 30 29 25
9 14 13 13 13 13 16 17 18 19 20 20 19 18 17 15 13 12 12 12 11 9 6 3 2 6 11 11 10 13 16 17 20 21 24 28 31 33

GFSNE_500_spd_030.txt.gz
Wind_Speed
81 84 86 88 91 94 96 100 105 105 101 102 105 102 104 103 102 99 96 91 87 86 86 84 84 84 84 83 83 83 85 86 85 88 95 100 102 90
84 85 88 91 94 99 103 106 107 108 111 102 101 98 95 93 92 92 88 85 81 78 78 77 76 76 76 75 72 72 76 81 83 83 83 94 98 102
85 90 94 99 103 105 105 104 103 102 103 96 92 88 83 82 80 84 84 79 75 71 70 69 68 66 67 67 67 66 65 70 81 83 79 83 90 95
93 97 101 105 106 104 101 99 97 96 96 95 85 81 81 79 77 74 71 70 69 66 65 64 63 65 65 65 64 64 65 65 69 81 80 76 79 77
100 104 106 105 101 98 95 94 93 90 87 88 84 80 78 74 69 65 64 62 61 62 64 62 61 60 58 58 58 59 62 65 66 74 80 76 73 68
105 106 102 97 94 92 91 89 87 85 84 84 84 79 71 63 62 60 55 55 56 58 57 56 59 59 59 59 59 59 61 63 68 67 81 77 72 66
103 98 93 89 87 86 85 83 82 82 82 83 78 70 63 57 55 53 53 48 46 51 52 48 53 51 49 50 49 51 55 56 62 69 74 79 73 66
96 90 86 83 80 78 77 79 80 84 81 72 68 62 54 52 49 45 41 37 26 32 37 32 41 37 37 37 38 41 43 44 51 63 72 80 72 65
88 84 79 76 75 75 75 78 80 72 63 63 60 56 49 47 38 28 28 31 27 27 33 27 27 23 26 30 32 34 33 36 40 54 66 78 71 65
79 75 74 72 74 77 78 78 68 54 55 57 54 48 46 34 34 36 37 32 29 26 31 25 30 27 28 31 33 39 39 29 29 45 59 74 68 63
73 71 73 75 78 80 77 64 52 51 50 45 44 39 37 41 45 48 46 37 25 23 29 32 26 27 31 32 31 33 25 20 23 37 51 70 66 63
69 71 75 80 79 66 53 50 49 44 39 31 29 33 40 44 48 49 40 28 20 16 28 27 22 27 23 26 26 21 13 12 17 29 43 66 65 63
73 74 77 71 55 46 46 46 43 36 26 29 34 39 40 37 32 26 24 21 19 16 23 19 21 22 19 16 16 7 4 5 13 23 35 56 62 62
77 75 62 47 44 43 42 40 31 28 32 35 32 27 26 22 20 23 26 26 27 25 19 20 18 19 18 13 9 4 2 6 12 19 29 44 58 60
71 54 44 42 40 38 37 29 28 33 29 24 22 22 22 20 21 24 24 22 20 20 20 17 17 16 15 9 6 4 8 13 16 18 22 28 39 49
47 40 39 37 36 34 26 28 31 25 22 21 22 22 20 18 17 17 19 20 22 21 19 13 14 9 12 11 10 11 16 19 23 24 26 28 31 35
40 38 34 30 27 22 25 27 21 20 20 20 21 20 20 19 18 19 19 21 24 23 18 18 15 14 13 14 14 17 21 25 29 32 32 34 36 39
41 31 24 23 18 21 19 19 17 17 18 18 18 18 18 17 17 18 19 21 23 27 18 18 16 17 15 17 19 23 26 30 33 32 32 28 33 34
26 20 20 17 21 16 18 17 16 17 17 18 19 19 19 18 19 20 21 21 21 22 25 15 16 17 17 17 21 26 28 30 33 30 27 31 30 31
25 20 16 19 13 16 16 16 17 18 19 19 20 20 19 18 18 19 18 17 18 18 17 19 10 13 14 17 17 22 26 27 27 26 26 30 31 32
20 17 17 13 17 16 15 16 17 18 19 20 20 20 19 18 16 15 13 11 11 11 12 12 13 7 11 15 16 15 21 23 18 20 23 24 25 26
16 17 15 16 15 16 19 21 22 21 20 19 18 18 18 17 16 15 13 11 8 5 5 6 8 9 6 10 16 16 17 18 22 21 19 18 19 19
15 14 14 15 19 20 21 21 20 16 15 16 18 20 20 18 18 16 14 12 9 7 5 3 4 7 10 8 14 18 19 18 20 17 16 19 23 21

GFSNE_500_spd_033.txt.gz
Wind_Speed
74 75 76 80 85 89 93 98 104 101 97 100 105 104 106 104 100 98 97 95 91 88 87 86 83 81 81 80 80 81 82 83 83 84 85 89 94 100
74 78 83 87 91 96 102 106 110 111 108 101 100 100 98 96 93 91 91 86 82 81 80 79 79 78 75 75 77 75 75 75 76 78 80 84 86 89
80 84 89 95 100 104 108 110 107 104 104 96 91 87 85 85 81 84 85 83 81 78 75 74 70 68 69 69 68 68 68 68 68 68 70 75 81 86
88 93 98 104 108 111 110 105 99 95 94 92 83 79 77 73 72 74 78 79 75 70 67 64 62 64 64 65 66 66 65 65 66 66 67 67 70 77
95 101 106 110 110 106 99 96 92 89 85 85 80 74 71 74 72 70 65 62 62 61 59 59 62 63 64 64 65 64 62 62 62 63 64 68 68 66
103 108 111 110 104 97 91 88 85 82 81 81 80 76 74 68 63 60 55 50 48 47 49 52 53 54 54 57 57 56 56 58 59 60 61 61 63 67
109 113 109 99 92 87 84 81 79 78 79 82 82 74 59 54 55 51 43 36 30 32 33 37 38 36 37 41 41 41 41 43 46 52 60 62 62 63
114 110 98 88 82 79 77 77 79 82 81 76 62 53 51 49 44 37 29 27 28 36 38 35 42 38 39 39 37 35 32 31 32 38 46 54 61 64
111 96 85 81 79 75 73 77 77 66 55 52 50 47 43 38 32 33 37 38 36 35 40 28 39 41 39 39 38 36 34 33 34 33 34 42 53 60
96 86 82 77 76 77 77 71 54 45 45 45 44 40 35 38 43 42 37 24 21 25 37 30 32 34 35 35 35 38 40 40 40 39 37 35 41 51
85 81 80 81 79 73 62 48 42 41 40 37 34 37 41 44 41 29 24 20 18 22 28 26 29 26 27 31 35 34 31 33 38 35 32 33 37 45
78 81 81 75 62 47 43 40 38 35 28 28 34 36 34 30 30 28 27 29 29 27 32 29 25 22 22 28 28 25 21 20 20 21 23 25 33 48
81 75 65 51 41 39 37 36 31 26 30 29 25 25 28 27 27 28 31 30 25 24 25 24 23 25 25 23 21 15 14 15 12 11 14 19 34 47
71 59 49 42 38 34 32 28 25 28 22 23 23 23 22 22 23 24 26 28 30 28 26 21 23 17 15 16 12 12 12 11 6 4 13 22 35 52
58 52 46 38 31 29 25 24 23 21 20 21 22 22 21 21 23 24 25 28 32 30 24 24 18 12 13 10 11 10 10 11 13 7 10 24 40 55
50 43 33 26 26 21 23 22 20 18 19 20 20 20 21 21 21 21 22 25 28 27 23 20 14 12 13 12 12 13 15 24 19 14 14 25 44 50
38 30 26 23 20 24 22 20 19 19 20 21 20 21 21 22 22 21 22 24 26 27 20 20 18 12 12 14 18 22 28 23 22 23 19 22 37 46
31 30 21 20 21 15 18 18 18 18 19 20 20 21 21 21 20 21 22 22 24 25 18 18 18 15 15 16 18 30 24 23 23 20 28 20 26 37
28 22 22 21 15 17 16 16 18 19 21 23 24 24 24 23 21 19 18 18 20 20 19 14 15 14 13 14 17 25 31 27 26 24 31 26 26 28
23 21 19 16 15 16 18 20 22 23 23 22 21 21 22 21 20 19 17 13 13 14 14 11 10 10 11 12 14 19 24 28 24 24 28 27 23 23
19 17 18 16 19 22 22 23 21 20 18 18 20 21 22 22 22 20 16 12 7 7 9 9 7 7 8 12 12 13 18 17 18 31 25 23 23 30
16 17 17 20 22 23 23 20 16 14 18 20 21 21 20 18 20 20 18 12 7 5 2 3 4 7 6 10 14 15 16 19 16 21 30 25 23 26
16 17 21 22 23 22 18 14 14 16 20 21 21 22 21 19 18 17 15 14 9 4 8 5 3 5 10 8 13 17 17 24 23 20 18 24 28 25

GFSNE_500_spd_036.txt.gz
Wind_Speed
68 68 71 75 80 86 91 96 101 99 96 100 108 112 114 113 110 108 104 102 100 98 97 96 94 90 89 89 89 88 89 90 92 93 94 96 97 100
68 72 78 83 87 93 99 104 109 115 115 111 109 108 106 104 101 97 95 92 88 85 86 84 82 82 81 81 80 80 80 81 82 82 83 84 86 89
75 79 84 90 95 101 107 111 116 120 120 109 101 95 91 90 90 90 89 85 82 78 79 79 77 76 75 74 74 72 73 74 75 76 77 78 80 82
80 86 91 97 103 109 113 117 120 113 107 101 88 82 80 75 76 77 81 83 81 75 70 65 65 65 64 64 63 63 63 64 65 66 68 70 71 73
86 92 99 105 109 114 119 119 109 99 93 90 81 73 72 76 77 76 73 68 62 60 58 56 56 54 51 51 53 55 57 58 61 61 61 63 66 68
93 99 105 110 116 122 117 105 95 89 85 83 81 77 75 69 62 58 49 50 48 45 43 45 42 41 44 47 45 43 42 43 46 51 57 59 62 65
100 105 110 116 122 112 99 91 88 88 85 81 74 65 53 49 48 42 34 31 29 34 38 38 44 47 49 53 50 43 38 34 33 37 42 46 53 58
105 109 114 121 105 92 87 88 86 78 67 60 48 47 45 42 35 34 39 38 34 40 45 40 51 48 51 54 53 50 40 32 26 28 30 35 41 47
108 114 119 99 88 85 83 76 63 51 46 44 43 40 34 37 41 36 29 25 24 28 28 25 32 30 32 33 34 33 31 30 31 31 33 30 30 32
112 114 95 86 85 79 69 56 44 41 39 39 37 36 39 36 30 31 26 22 28 34 36 31 37 34 33 31 27 25 27 28 33 35 33 32 34 34
110 90 85 83 74 67 55 45 39 35 32 31 36 36 31 32 31 26 26 25 24 31 33 33 34 31 32 33 29 29 31 31 34 35 37 38 40 39
84 80 77 70 63 58 46 38 32 26 27 26 25 26 26 25 27 29 28 26 27 26 32 29 29 28 22 28 28 31 35 30 27 28 31 34 34 40
78 72 65 58 55 41 33 29 26 26 21 20 19 20 23 24 25 27 29 29 26 26 29 31 27 26 20 20 25 24 20 22 20 20 20 22 23 25
71 63 53 47 39 31 26 25 25 20 18 19 20 22 21 21 23 25 27 30 33 31 30 28 23 22 25 20 18 17 18 22 25 17 14 11 12 18
61 51 43 40 33 26 28 21 19 17 18 20 21 21 21 20 21 24 27 29 33 31 26 29 24 25 22 20 17 17 22 23 23 20 9 2 11 25
50 41 36 32 27 28 19 21 19 19 19 19 20 22 22 23 22 22 22 25 27 28 24 28 24 21 20 23 25 18 20 21 23 18 9 15 27 39
41 33 30 27 28 22 25 20 21 22 24 25 26 27 28 27 25 23 22 23 23 23 19 24 22 19 19 29 26 23 21 21 22 21 19 30 43 48
32 28 26 25 18 23 21 24 25 26 26 26 25 24 25 25 24 23 21 19 20 20 16 18 19 18 17 21 23 21 26 30 28 27 28 37 41 41
26 24 24 21 23 22 24 26 26 26 23 20 21 22 24 24 24 22 19 17 16 16 15 10 15 14 15 19 24 23 34 37 33 32 27 33 34 34
24 23 21 22 25 27 27 25 24 19 17 21 23 24 24 23 21 22 20 17 14 12 11 7 8 11 11 14 18 20 24 21 22 27 25 27 28 30
22 21 22 25 25 24 23 20 15 15 20 22 22 23 23 22 22 23 21 17 12 9 8 7 4 7 8 13 13 14 15 18 29 23 27 22 21 26
19 22 23 22 21 21 19 16 18 20 22 20 21 20 19 20 21 24 20 15 11 8 6 5 3 4 5 12 15 10 14 18 17 17 21 20 22 21
20 20 21 22 22 22 20 20 20 20 20 18 16 16 17 20 21 22 21 17 13 8 6 5 1 3 8 11 16 20 20 17 20 17 17 28 29 27

GFSNE_500_spd_039.txt.gz
Wind_Speed
67 64 64 67 72 78 84 90 96 96 93 98 108 113 120 124 127 124 118 113 108 101 96 95 93 92 91 92 93 92 93 93 93 94 96 98 99 101
64 64 67 73 79 84 90 97 104 110 112 110 115 123 127 125 115 108 104 97 89 87 87 85 83 82 80 79 78 78 79 80 81 83 84 86 89 91
65 68 74 79 85 91 98 104 111 119 125 122 123 116 107 100 96 95 90 86 82 78 78 79 79 78 77 77 74 72 71 72 73 74 76 78 81 85
69 75 81 86 92 99 106 112 118 124 127 119 103 92 89 86 83 82 81 79 74 64 58 58 58 59 58 58 59 60 60 59 60 61 63 65 69 72
76 81 87 93 101 107 113 119 123 117 104 97 91 85 75 70 63 59 54 50 52 51 48 48 48 47 45 45 47 49 48 46 46 47 50 56 62 66
81 88 95 102 108 114 119 120 109 98 89 84 77 65 54 48 45 41 37 39 38 42 45 46 47 48 49 49 48 48 48 48 47 45 42 44 48 56
88 94 101 107 113 120 115 102 92 85 77 66 56 49 47 43 36 34 37 35 33 39 38 37 40 38 41 41 39 38 38 40 40 39 39 39 42 44
93 100 105 112 117 109 94 87 81 74 65 55 49 45 38 40 37 29 28 27 23 35 31 29 40 39 43 40 38 36 34 33 36 33 35 37 37 37
100 105 111 114 103 88 82 75 65 61 51 46 38 38 37 32 29 24 24 27 31 34 28 27 39 37 39 38 39 39 38 30 28 29 32 35 36 35
104 110 112 99 84 79 70 57 49 41 38 38 38 34 29 27 25 23 20 19 27 36 37 32 36 35 35 37 36 33 29 30 33 37 39 36 39 40
107 109 96 84 75 68 53 45 39 34 34 36 32 30 28 28 27 23 23 25 24 32 39 32 38 34 33 32 30 27 26 29 32 37 38 36 38 40
106 90 79 74 65 52 43 37 33 32 29 25 26 27 28 29 30 32 31 28 27 26 33 32 35 32 27 31 24 23 23 22 21 23 27 31 35 37
88 76 69 61 51 42 37 33 34 24 24 22 24 25 26 28 28 30 33 33 28 30 34 36 33 29 29 22 21 16 21 26 28 29 26 26 27 30
74 68 59 48 40 35 33 33 24 27 25 25 25 27 26 28 29 32 32 32 34 34 32 34 29 27 26 26 23 24 29 32 34 35 26 28 25 24
68 60 47 40 35 32 32 25 28 24 24 26 29 30 32 30 27 28 31 31 33 30 29 30 24 21 26 31 32 31 29 30 29 30 21 21 20 15
59 46 38 34 32 32 28 29 27 28 29 29 30 31 30 30 30 27 26 24 24 26 26 24 18 21 27 32 32 28 26 22 22 20 15 14 11 7
46 37 32 30 30 30 31 31 33 34 33 32 29 26 28 28 29 27 25 24 20 15 21 19 13 16 21 25 24 30 39 26 22 23 23 26 32 38
36 29 28 28 27 28 31 34 34 33 30 24 25 27 27 26 27 27 25 22 19 13 16 13 10 10 17 20 20 30 29 23 29 33 35 39 43 46
27 26 26 28 29 32 31 31 30 26 20 23 26 25 25 26 25 25 25 22 20 12 10 7 6 6 11 14 21 26 24 23 26 26 27 32 36 39
27 24 27 28 29 30 30 29 25 23 24 26 24 22 21 21 23 25 27 21 17 14 7 4 3 4 6 9 17 22 26 22 23 22 22 25 28 30
23 25 26 27 28 28 28 28 26 26 25 24 21 19 18 20 21 25 27 25 18 14 6 3 3 5 6 9 16 16 17 16 20 19 21 21 25 27
20 22 23 24 27 30 30 29 28 27 26 23 21 20 18 19 20 24 25 24 21 17 7 1 2 5 8 8 10 13 16 15 13 20 21 23 23 24
19 19 22 25 28 30 33 33 30 27 25 24 21 21 18 19 21 24 25 20 18 16 9 1 2 8 10 12 12 14 17 20 18 16 18 23 24 23

GFSNE_500_spd_042.txt.gz
Wind_Speed
63 67 68 67 67 70 73 78 84 84 82 88 96 102 110 115 121 126 126 123 122 115 104 98 93 91 89 87 87 87 87 88 89 93 94 94 97 100
67 67 66 67 70 74 79 84 90 96 96 97 102 111 119 123 124 118 111 103 96 89 85 83 81 78 76 76 77 77 78 79 80 81 81 84 86 87
67 66 68 71 75 79 85 90 96 104 110 106 114 117 116 109 99 96 90 80 67 58 57 54 50 50 52 53 55 56 58 61 65 70 74 78 78 80
66 68 72 75 79 85 91 96 104 111 118 121 114 106 96 87 82 70 60 56 54 48 45 45 42 41 40 41 42 43 42 42 44 48 54 61 67 73
69 71 75 80 86 92 98 105 111 116 116 112 101 89 78 65 52 48 44 43 46 47 47 45 43 39 36 37 37 37 38 39 40 41 39 42 49 54
71 75 81 86 93 99 105 112 115 110 101 92 84 69 52 43 39 39 40 40 38 39 35 35 38 38 38 39 39 39 38 36 32 32 36 39 40 41
75 81 87 93 99 106 113 114 105 93 84 75 59 46 40 39 39 34 32 31 32 37 27 30 35 38 41 42 42 41 38 36 36 33 31 33 41 43
80 86 93 100 106 112 111 100 87 80 67 54 41 40 40 35 29 28 28 28 24 36 26 28 40 38 37 39 38 35 34 33 32 36 39 35 35 41
87 93 99 107 111 108 95 81 70 60 52 43 44 40 32 32 26 23 25 27 31 36 30 31 39 34 39 40 34 31 29 29 30 33 36 37 35 32
93 101 108 110 105 93 80 68 52 45 42 45 41 34 30 29 28 27 25 23 27 35 36 36 37 35 35 37 36 33 30 27 26 26 30 34 38 39
100 108 110 104 91 79 68 51 40 38 41 39 36 35 36 36 34 31 30 29 25 29 35 37 36 28 30 31 32 30 29 22 19 21 26 32 38 42
106 108 102 88 76 66 53 38 34 38 34 33 33 35 37 37 37 38 37 33 31 25 33 30 30 28 19 28 30 32 30 32 32 30 28 30 32 36
106 98 83 73 64 52 40 34 37 33 32 32 32 32 34 37 37 37 37 36 34 29 33 31 27 25 29 27 32 32 34 34 35 33 34 37 32 33
95 80 71 61 50 39 34 34 29 33 30 33 34 37 36 34 32 34 35 36 37 31 24 28 24 22 28 28 29 36 43 38 33 34 34 31 29 28
78 70 59 46 37 34 35 30 34 31 36 36 36 36 34 31 28 29 31 31 34 31 22 23 20 20 25 29 35 40 38 36 30 28 28 31 29 21
67 57 43 35 33 34 33 36 36 37 36 34 30 26 26 29 30 28 26 25 26 29 24 16 15 15 20 27 38 38 30 26 25 29 31 31 28 13
55 39 32 32 33 34 36 37 37 37 35 31 25 27 29 28 29 27 27 26 23 21 18 14 12 12 16 24 32 29 21 25 29 34 33 32 29 28
39 29 29 30 30 31 32 33 35 34 32 29 29 30 27 24 22 26 27 28 24 19 12 8 9 8 15 23 26 15 17 20 22 27 29 32 36 36
27 26 27 28 28 28 30 32 33 34 33 31 29 28 26 23 22 23 27 27 28 20 9 7 6 3 8 17 20 20 13 19 19 24 26 29 32 35
26 24 25 25 26 29 32 34 36 35 33 32 28 25 23 20 19 22 25 27 24 21 10 6 4 3 2 9 16 16 10 14 17 17 21 21 24 31
22 21 22 25 28 31 34 36 35 33 32 29 25 23 21 19 20 20 25 25 22 19 11 4 5 3 3 6 14 14 11 9 14 20 22 22 23 23
16 18 22 25 29 32 35 36 34 32 30 27 23 20 20 19 19 21 22 21 18 18 13 2 4 4 6 7 9 13 12 14 11 14 16 16 18 18
14 18 23 27 29 33 35 34 31 29 28 27 24 23 22 21 20 20 20 18 15 14 12 2 2 7 8 9 10 12 15 12 12 10 14 15 16 18

GFSNE_500_spd_045.txt.gz
Wind_Speed
57 58 61 64 67 67 68 70 73 74 72 79 85 93 98 103 108 112 116 119 120 116 111 104 96 88 81 76 73 72 75 79 85 91 95 94 93 94
59 62 65 67 66 68 70 73 76 80 81 84 90 100 108 113 118 120 116 106 94 87 79 72 64 56 51 50 50 50 50 52 57 65 73 78 81 82
63 66 68 67 68 70 72 77 82 89 93 91 100 105 112 116 110 99 91 80 68 58 52 50 47 46 43 39 39 41 43 42 42 43 48 57 66 73
67 67 66 67 69 72 77 83 89 97 104 105 107 111 104 90 81 71 60 54 49 50 51 41 33 36 37 38 39 38 37 35 36 40 43 45 48 52
67 66 67 69 73 78 85 91 98 103 111 116 113 93 78 65 51 46 48 47 45 42 38 37 37 36 34 35 34 34 34 37 40 41 41 40 44 47
65 67 69 74 78 85 92 99 105 111 114 107 89 74 54 42 44 40 37 39 37 41 29 29 35 35 40 39 36 36 38 38 37 39 42 45 44 43
66 69 74 79 86 93 102 108 112 110 99 84 70 51 42 42 38 34 33 30 33 40 28 29 35 34 39 38 40 39 39 40 40 39 41 44 45 44
69 74 79 86 91 100 108 112 106 91 79 66 47 40 42 36 32 29 31 30 26 39 30 27 35 34 39 40 37 36 35 36 35 37 38 38 42 46
73 78 85 92 98 107 110 100 82 73 62 48 37 42 37 33 31 29 31 30 30 34 35 24 36 33 39 37 35 33 32 30 28 28 29 32 35 39
79 85 91 96 106 108 98 81 68 56 45 39 42 38 36 35 34 32 31 29 31 33 36 27 34 30 36 33 34 33 31 32 30 27 29 29 30 33
84 90 97 104 106 96 81 66 50 40 38 39 35 36 37 38 37 36 38 36 33 31 35 29 31 25 29 29 33 31 34 35 36 35 30 32 32 33
89 97 104 104 90 78 65 48 35 35 38 35 40 38 39 43 43 43 43 40 40 29 35 27 27 24 16 24 28 32 38 37 39 37 31 29 30 31
94 101 101 86 74 61 46 35 35 36 34 39 37 41 43 42 40 39 39 39 37 32 32 26 21 21 16 10 25 35 33 31 31 34 35 35 32 31
98 98 82 69 58 42 35 36 35 36 37 38 37 36 35 32 31 32 35 35 36 31 27 25 19 18 14 17 27 24 28 30 32 34 34 33 33 36
94 79 67 53 38 35 35 34 34 34 33 34 33 32 28 27 29 27 29 28 32 32 28 25 18 17 16 20 25 16 20 26 30 35 38 40 37 36
79 65 49 36 34 34 34 32 32 35 36 35 33 31 29 30 29 24 21 23 25 32 32 25 17 13 13 20 17 16 23 22 24 30 35 42 46 40
65 47 32 32 32 31 31 33 35 38 40 40 37 33 31 28 27 22 21 23 25 25 26 25 18 12 10 17 18 15 19 18 24 28 32 39 43 45
47 27 27 28 26 27 31 34 38 40 41 40 38 34 29 25 22 22 20 22 24 26 22 17 15 13 11 16 16 11 17 14 20 24 29 33 39 41
26 22 23 23 26 30 33 36 39 40 39 37 33 29 24 22 21 20 20 21 26 25 21 14 10 9 6 11 14 11 14 11 15 21 27 33 34 37
19 18 20 24 29 32 35 38 39 36 34 32 30 27 24 20 20 19 19 20 23 22 21 11 7 6 3 6 9 8 10 12 13 18 24 27 28 31
14 16 22 27 30 34 38 40 35 31 31 31 30 28 26 23 22 20 20 20 18 16 18 9 6 4 2 5 14 9 6 8 12 15 18 21 22 24
11 18 23 27 30 36 40 36 33 33 33 32 29 27 26 24 23 21 19 18 17 14 14 8 4 4 3 2 9 6 7 5 6 11 14 17 18 20
13 19 23 25 31 36 38 34 32 34 34 31 27 25 25 25 25 23 21 18 13 10 9 7 2 5 6 2 8 9 8 7 5 7 10 15 17 16

GFSNE_500_spd_048.txt.gz
Wind_Speed
57 58 59 60 62 67 70 71 71 72 71 73 78 84 88 92 97 102 106 110 115 117 114 106 95 84 73 65 61 59 58 60 64 68 72 77 83 92
58 58 61 63 68 70 71 70 71 73 73 76 83 91 98 102 108 113 116 113 104 93 84 74 62 54 48 47 45 45 46 47 48 49 51 54 59 64
58 61 63 68 70 70 71 71 73 77 79 77 88 96 105 113 117 117 105 89 76 60 55 53 46 37 35 35 36 36 38 39 42 44 46 46 46 49
60 63 68 69 70 70 71 74 78 82 87 90 94 102 110 114 108 91 76 62 51 52 48 44 42 41 39 36 34 31 36 39 42 44 46 48 50 51
63 66 68 69 69 71 74 79 84 88 94 101 103 109 106 94 77 64 48 48 48 43 44 40 35 36 34 32 29 31 31 34 37 42 47 52 54 54
66 67 68 69 71 75 80 85 90 96 103 109 111 101 83 66 50 40 41 41 40 39 42 36 33 36 37 34 34 34 36 37 40 43 46 47 47 49
66 66 68 71 75 81 86 91 98 103 109 109 96 76 58 40 38 42 35 35 36 39 40 39 34 37 38 37 36 36 38 39 41 41 43 44 44 44
65 67 70 74 80 85 92 98 103 108 105 89 72 53 39 38 40 34 32 33 33 39 39 36 39 40 38 39 37 35 35 37 39 39 40 39 39 38
66 69 74 80 85 92 98 102 103 96 80 66 48 39 39 38 34 36 34 36 36 38 37 34 39 39 38 39 36 34 32 33 32 36 37 38 38 41
69 75 80 85 92 97 102 102 89 72 57 45 40 41 39 40 41 40 42 42 41 41 40 35 39 37 34 39 37 32 29 32 38 42 38 36 35 37
74 79 85 90 97 102 101 86 63 49 44 43 42 41 44 45 45 43 41 41 38 34 41 34 38 36 33 37 35 31 28 35 35 32 31 31 33 33
78 85 90 95 101 100 83 60 41 40 42 42 44 43 43 44 44 44 42 39 36 29 36 30 33 36 23 35 34 28 30 34 27 29 32 34 37 35
84 89 94 99 98 80 57 41 39 39 40 38 39 41 43 42 42 40 38 37 35 31 33 29 28 28 29 22 30 29 30 24 26 30 33 36 38 42
89 94 98 96 75 54 38 38 38 36 36 39 41 43 43 43 42 39 38 36 33 28 29 32 29 23 23 21 20 20 21 23 24 26 32 33 36 40
92 96 91 70 51 35 36 34 33 36 38 42 43 45 44 42 39 36 35 31 29 31 31 32 33 21 18 15 13 17 14 19 21 27 30 33 35 37
94 88 66 47 32 33 32 33 37 38 40 43 44 43 40 38 36 32 28 27 24 28 33 34 32 23 13 13 12 10 13 18 19 25 28 32 36 37
88 64 44 30 30 29 33 35 38 42 44 41 38 36 36 35 32 29 26 24 22 21 27 33 32 23 10 10 14 13 12 18 21 22 28 35 36 41
62 42 25 25 26 31 33 38 43 43 38 35 36 36 34 32 29 28 26 24 22 23 25 26 26 19 13 11 13 17 14 15 20 17 26 30 36 38
43 22 20 23 28 30 34 40 42 38 36 35 36 36 33 31 29 26 24 22 24 24 23 22 21 13 10 11 16 17 10 12 12 18 24 27 30 34
19 17 19 25 28 30 38 41 41 39 39 39 37 32 29 27 27 26 24 23 23 23 22 20 18 10 7 8 13 8 5 7 12 17 21 24 28 30
14 14 20 24 26 32 36 39 39 39 39 39 36 32 29 27 27 26 24 23 20 18 18 16 13 5 5 7 13 8 4 6 12 16 20 25 27 26
8 15 20 22 27 32 36 39 40 40 40 40 38 34 29 28 29 27 24 21 19 17 15 12 8 3 3 5 12 5 5 6 9 14 17 22 27 26
8 15 18 22 28 33 36 39 40 40 41 42 40 35 31 31 32 27 22 18 14 13 10 9 4 3 3 4 10 6 7 6 8 12 17 20 23 23

GFSNE_500_spd_051.txt.gz
Wind_Speed
52 55 57 57 59 62 65 67 71 71 70 70 72 75 76 79 83 87 92 97 103 109 114 114 108 97 85 73 61 58 59 62 64 65 66 68 70 74
55 56 57 59 62 65 68 69 70 72 73 73 75 79 84 87 93 98 103 108 113 113 105 92 79 66 53 49 44 41 41 40 39 39 39 40 41 43
55 56 60 63 65 67 69 69 71 72 72 72 78 85 91 97 102 108 111 112 102 86 73 59 48 45 42 40 41 41 39 36 34 35 38 41 44 47
57 60 62 65 66 68 69 71 72 73 76 77 84 91 98 105 111 113 105 86 73 57 44 46 40 41 39 38 39 36 32 31 33 37 40 40 42 42
60 62 63 66 67 69 71 71 74 78 83 87 90 97 104 112 110 93 75 57 45 43 45 41 39 38 36 37 36 33 32 31 35 37 37 36 37 41
61 63 65 66 68 70 70 74 79 84 90 96 99 104 111 100 81 64 46 43 45 43 40 40 40 41 38 36 36 35 31 31 35 36 36 36 39 41
63 64 66 67 68 70 74 79 86 92 97 101 105 109 89 66 51 42 42 39 40 41 40 40 40 42 43 41 40 37 34 34 35 37 38 39 41 44
62 65 66 66 69 74 79 86 93 99 104 107 106 79 57 43 42 44 41 42 42 41 44 40 44 44 46 45 43 41 40 38 38 38 38 38 40 45
64 65 65 70 74 79 86 93 98 103 108 98 72 52 43 44 43 43 43 44 43 46 48 41 39 41 44 44 47 45 43 41 39 37 34 37 38 36
62 64 69 73 80 86 91 97 102 104 85 64 48 45 44 42 40 41 42 41 40 42 45 40 36 37 36 41 44 43 41 39 35 32 33 32 29 31
63 67 73 78 83 90 98 101 99 74 56 46 45 42 41 44 46 46 46 45 41 36 42 38 35 33 30 37 41 38 36 34 31 29 29 28 32 33
66 72 78 84 92 98 102 94 68 46 42 42 43 45 46 47 50 51 51 49 44 36 40 34 30 34 24 32 40 38 34 32 28 28 27 29 32 34
69 75 83 91 96 101 89 64 40 39 38 41 44 46 49 51 53 52 50 47 41 36 36 30 27 31 32 27 30 32 29 29 29 27 27 28 31 36
75 81 88 94 98 84 59 37 36 37 40 42 47 51 52 48 46 43 43 43 40 35 29 26 24 29 29 26 20 22 21 27 25 22 24 26 30 33
81 87 92 95 81 56 35 32 35 38 41 47 49 47 44 43 43 41 39 37 33 31 28 24 26 28 31 23 13 17 17 22 20 20 23 24 30 35
85 90 92 78 55 31 30 33 35 40 45 45 44 43 43 44 44 41 35 33 28 28 31 26 26 29 29 19 13 11 14 14 15 18 20 25 32 38
89 90 74 53 29 27 30 32 38 39 40 42 43 43 44 43 39 37 34 30 29 25 25 28 29 29 29 12 12 13 10 11 16 15 17 26 34 37
88 73 52 27 23 27 29 34 37 40 42 43 43 45 44 41 35 33 31 29 27 25 23 24 25 25 26 12 8 10 16 11 14 15 21 26 31 34
76 52 27 19 23 26 30 34 37 42 44 45 45 47 47 44 38 33 31 29 27 25 23 21 21 21 15 11 14 16 14 13 13 19 23 27 28 30
54 29 16 19 24 27 32 36 40 44 46 47 48 49 49 45 39 33 30 30 27 24 22 21 20 19 9 7 9 17 14 11 13 19 22 27 28 26
34 14 14 20 23 29 35 39 43 47 47 48 49 49 46 40 36 33 32 32 28 23 19 18 16 12 5 5 9 13 10 10 13 16 20 24 24 27
15 10 15 20 23 30 36 41 46 48 47 48 48 45 42 39 35 31 27 23 21 19 15 13 12 5 2 5 11 9 10 11 11 15 20 23 23 26
9 10 16 21 24 29 37 41 47 46 45 47 44 41 39 36 34 29 24 18 13 11 8 7 4 1 1 8 12 9 9 9 10 14 18 22 22 25

GFSNE_500_spd_054.txt.gz
Wind_Speed
46 49 51 53 57 58 60 62 65 66 64 63 66 68 69 70 72 76 80 84 89 95 99 102 105 108 107 102 92 79 69 65 63 63 62 61 60 61
48 51 53 55 58 60 62 63 65 68 70 70 71 70 72 75 79 85 89 93 98 104 107 109 105 94 80 66 53 47 47 45 44 43 43 43 42 41
50 52 55 57 59 61 63 65 67 69 70 68 70 73 76 81 87 92 97 103 107 109 104 87 73 56 47 45 42 38 39 39 40 40 37 37 40 41
53 55 57 59 60 62 65 67 68 69 69 70 74 78 84 90 95 100 105 109 101 83 66 49 46 45 44 38 38 37 37 38 37 36 34 35 37 37
55 57 58 59 62 65 66 68 67 68 72 77 79 85 91 99 103 108 106 84 62 50 47 45 41 40 38 39 39 38 37 35 34 36 36 39 39 39
57 57 59 61 63 65 66 65 68 71 75 81 87 93 100 106 109 97 70 49 49 48 45 45 46 47 45 44 41 41 38 36 35 35 36 40 41 42
57 59 61 62 64 65 64 67 71 76 82 87 92 100 107 104 86 59 45 45 47 47 44 46 46 47 47 48 48 48 46 44 41 38 37 38 39 40
58 59 61 63 63 64 67 71 78 85 90 95 101 106 98 70 49 46 45 42 39 47 46 43 46 44 46 45 46 49 46 45 47 45 42 41 40 40
59 60 62 61 62 64 70 77 83 90 98 104 105 87 57 47 42 41 45 46 48 52 51 46 47 41 43 40 43 44 43 42 42 44 43 42 42 39
60 61 59 62 64 69 76 82 89 97 101 99 75 50 44 42 46 47 49 50 52 55 58 54 47 41 38 38 41 40 40 38 38 39 38 37 37 34
58 58 62 65 69 76 82 89 96 99 91 65 47 43 44 47 51 54 56 56 50 46 51 48 43 40 33 33 37 38 37 35 34 33 30 29 29 31
58 61 66 71 75 83 90 96 96 85 54 42 43 45 49 53 55 54 50 45 45 42 48 42 38 36 26 26 34 38 37 36 32 27 22 22 24 24
60 65 71 75 82 89 95 96 84 50 36 38 42 46 47 47 48 50 50 50 47 43 44 40 30 26 26 20 27 35 37 34 27 24 21 18 21 25
64 70 73 80 88 94 98 81 46 33 35 39 42 43 45 45 47 49 50 49 45 42 38 36 27 24 22 21 26 32 33 26 22 23 23 23 26 29
69 74 79 87 94 97 77 44 31 33 36 39 41 44 45 46 47 47 50 47 40 39 37 33 28 22 21 23 24 27 21 21 23 25 21 24 26 25
72 78 84 93 94 74 42 28 31 34 39 40 43 47 48 49 50 51 48 45 37 34 37 33 28 22 21 25 25 16 15 16 22 26 21 23 24 26
77 83 91 91 70 42 26 28 32 37 41 44 48 50 51 50 51 51 48 41 36 32 30 31 30 26 24 22 17 13 12 14 18 19 18 16 23 29
83 89 88 66 39 22 25 29 35 39 44 48 52 53 51 51 51 47 42 35 30 28 28 26 22 22 25 25 8 10 11 12 13 14 13 17 23 31
89 86 62 38 19 22 25 30 37 44 47 52 53 52 52 52 46 40 36 32 27 26 27 24 19 19 15 17 14 7 7 13 12 16 18 22 23 28
84 58 36 17 18 23 27 33 41 45 51 53 53 53 50 45 41 37 33 29 25 22 22 22 18 17 12 8 9 16 12 10 14 17 21 25 26 28
57 35 16 14 21 25 29 36 42 49 52 51 50 48 45 42 39 36 30 23 17 13 12 15 15 13 7 3 7 13 17 15 16 15 18 21 25 28
36 15 10 15 21 25 31 38 46 51 50 48 47 46 44 42 37 32 19 14 10 8 7 8 11 8 5 7 12 12 12 16 21 17 21 24 26 23
14 8 10 16 21 25 33 41 48 47 47 44 43 41 38 34 27 20 18 14 12 11 9 10 9 8 9 12 13 15 15 18 18 21 25 28 28 28

GFSNE_500_spd_057.txt.gz
Wind_Speed
44 41 43 46 49 51 54 57 59 60 58 57 60 60 61 63 65 67 70 74 77 81 85 89 93 97 100 103 106 106 102 94 85 78 73 71 70 70
43 45 47 49 51 54 57 59 61 62 64 64 63 64 65 65 67 70 74 80 85 89 93 98 102 106 106 102 87 68 57 52 50 50 49 45 45 46
46 48 49 52 55 56 59 60 61 64 65 65 67 67 69 71 73 79 85 88 93 99 103 108 108 97 75 54 48 45 45 45 42 41 42 43 42 42
48 49 52 54 56 58 59 62 62 64 66 66 65 67 70 75 80 86 91 96 103 107 109 92 71 52 48 48 44 42 41 41 41 41 41 41 41 40
49 51 54 56 58 59 62 62 63 64 65 67 67 72 76 83 88 92 98 103 104 94 67 55 51 51 48 47 46 48 45 45 44 42 41 40 40 39
51 54 56 58 59 60 62 63 64 64 66 68 72 79 85 90 94 97 101 95 64 55 52 52 47 47 47 47 46 46 45 45 47 48 46 43 40 40
54 55 57 59 60 63 65 65 64 67 71 75 80 86 91 95 99 101 83 53 48 48 47 50 50 51 53 52 51 50 48 45 43 44 48 49 47 43
53 56 57 59 62 64 64 65 68 72 77 80 85 92 97 101 99 70 47 43 43 53 53 56 58 56 57 57 57 57 53 48 44 41 42 46 48 46
53 55 58 62 63 61 63 67 71 77 82 87 93 100 102 89 60 43 44 47 51 54 56 54 52 49 50 48 51 52 51 48 42 40 39 41 43 44
54 59 61 60 61 63 66 70 75 80 86 94 102 101 77 47 43 44 47 48 48 49 53 51 51 49 47 46 50 47 44 42 39 37 36 38 40 41
58 59 59 59 63 67 71 73 79 87 93 102 99 69 43 43 46 47 47 48 46 47 53 50 51 45 41 41 45 43 39 36 34 31 33 36 38 37
56 57 60 63 67 71 75 80 87 93 99 89 54 42 43 46 48 49 51 51 51 50 55 50 49 43 33 31 39 40 34 32 28 31 34 32 31 32
55 58 62 67 70 75 80 88 95 98 77 43 37 40 45 48 50 53 56 56 54 53 55 53 47 38 33 28 29 33 32 32 32 34 31 26 23 24
58 62 67 71 76 82 88 94 93 68 36 34 37 43 47 50 53 56 57 57 55 53 52 53 43 35 30 25 25 28 33 34 33 30 22 16 15 17
62 67 71 76 81 87 93 86 57 31 32 35 41 46 50 53 57 58 56 55 52 52 52 46 37 31 28 24 20 26 27 32 33 17 18 19 20 20
66 72 77 80 88 93 79 51 27 30 34 40 46 52 55 59 59 57 55 53 48 43 42 39 33 27 25 24 22 22 26 25 24 18 19 25 22 23
71 76 81 87 90 73 46 25 28 33 39 47 52 56 59 57 56 53 48 43 38 34 30 31 27 24 23 22 17 19 19 17 17 20 25 23 26 25
77 82 86 88 68 40 23 28 31 37 43 50 56 58 58 54 49 46 41 37 32 27 24 24 19 19 22 27 12 11 12 13 17 19 18 17 20 26
83 86 87 63 36 18 24 29 32 40 48 54 56 55 52 51 47 40 35 30 25 20 19 14 13 15 14 16 19 6 12 14 14 16 18 18 19 25
87 81 54 33 16 20 25 28 37 45 51 51 48 48 47 43 36 30 24 18 14 12 12 10 11 13 12 9 13 16 15 8 14 15 19 24 29 31
76 48 30 13 15 21 25 33 40 46 44 43 41 40 37 34 31 29 25 21 14 10 9 11 13 10 8 7 10 15 20 18 16 20 23 25 28 32
44 28 10 9 16 20 26 34 41 40 38 38 35 33 33 32 31 29 26 24 21 17 15 14 14 13 12 12 13 15 18 21 27 27 25 26 29 32
26 8 5 10 15 20 27 34 37 34 34 34 32 31 30 30 29 28 27 25 25 23 20 18 16 17 18 19 18 16 17 18 19 23 30 34 37 39

GFSNE_500_spd_060.txt.gz
Wind_Speed
43 44 43 48 51 51 51 51 52 53 54 55 57 58 61 62 64 66 67 67 68 70 74 78 81 84 86 89 93 98 101 103 106 106 102 96 89 83
46 45 45 50 54 54 51 53 57 59 60 61 61 61 62 63 65 66 67 69 73 77 81 84 88 90 93 98 103 104 101 93 80 66 57 55 54 54
44 45 48 52 56 55 54 57 60 62 63 64 65 66 66 66 65 68 72 75 79 83 87 92 96 100 104 105 96 78 61 52 50 51 47 46 45 43
44 46 51 55 56 56 57 61 62 63 64 65 67 68 68 68 71 73 77 82 86 91 98 103 107 105 89 67 56 52 50 50 49 50 50 50 49 47
47 52 57 57 56 58 61 63 63 63 65 67 68 68 69 71 74 77 81 87 94 102 107 107 94 69 56 52 51 49 50 50 48 48 48 48 52 52
54 58 59 56 59 61 63 63 63 64 66 67 68 69 71 75 77 83 88 96 101 108 95 67 55 53 55 56 56 58 59 58 57 53 50 49 48 51
58 59 55 58 60 63 62 63 64 65 66 69 71 73 77 80 86 92 99 103 100 76 53 48 53 55 56 56 57 57 59 59 59 58 55 53 51 49
55 54 57 60 61 62 64 65 66 67 70 73 75 79 83 89 94 101 105 90 55 52 49 48 54 52 52 53 55 57 58 57 54 49 48 50 50 50
54 56 58 59 61 63 64 64 66 70 75 79 82 87 90 96 101 101 74 47 43 49 50 47 53 51 54 56 59 61 60 55 49 47 46 43 45 47
54 56 57 60 62 62 64 66 69 74 79 84 89 94 100 102 91 62 43 43 47 51 55 51 53 53 55 57 60 61 59 53 46 44 42 39 39 41
54 57 60 61 60 63 66 69 74 79 85 90 96 102 98 76 50 44 47 50 51 53 60 58 58 57 56 52 56 57 54 49 43 37 32 30 32 34
58 60 60 61 63 66 70 75 79 84 89 96 98 86 60 45 48 51 54 56 58 57 64 63 62 62 54 47 47 47 46 48 39 30 26 26 29 32
55 56 58 62 65 71 76 79 84 90 97 92 68 45 44 49 53 58 63 66 66 66 67 66 58 57 55 48 38 39 40 42 37 29 25 26 30 36
54 57 61 65 71 76 81 86 92 95 79 52 39 43 47 53 60 65 68 70 67 63 58 56 52 47 39 31 27 29 34 37 34 31 30 30 32 25
58 61 66 71 76 81 88 93 89 64 40 37 42 47 53 59 65 67 66 64 57 53 50 46 43 36 27 21 19 24 26 29 33 28 31 28 22 18
61 66 71 76 83 89 91 81 52 32 34 40 46 53 60 62 61 61 59 55 46 39 41 40 37 27 21 20 20 18 22 22 29 33 24 16 19 19
65 70 76 84 91 88 72 44 27 32 39 45 52 56 53 52 51 48 46 41 35 30 28 31 29 21 18 20 18 20 15 21 24 20 19 17 19 21
69 76 84 91 83 61 38 24 28 35 41 48 49 46 42 42 42 41 38 36 29 23 18 16 15 15 20 24 23 3 9 13 12 14 19 18 19 27
76 84 90 77 53 33 18 24 30 36 43 41 43 39 36 37 37 37 34 33 29 25 20 14 13 14 14 16 23 6 8 15 12 20 24 22 18 26
84 89 72 46 29 14 19 25 31 37 36 37 37 34 32 32 32 32 31 29 27 26 24 21 17 15 13 11 14 22 21 13 15 14 23 26 28 29
87 68 43 23 9 14 20 25 31 34 32 33 32 30 29 27 27 27 28 29 27 25 23 22 20 18 17 18 18 20 25 28 26 19 19 27 30 34
64 39 18 4 8 15 20 26 32 29 31 31 30 27 25 24 25 27 29 28 28 28 27 26 24 22 20 19 18 18 20 23 27 28 26 26 28 31
32 12 0 4 10 15 20 27 28 27 27 28 28 25 23 24 26 28 29 29 30 29 27 25 23 22 20 19 18 19 23 26 27 29 31 28 24 23

GFSNE_500_spd_063.txt.gz
Wind_Speed
46 45 43 44 42 48 49 51 52 54 54 55 58 59 61 62 64 65 65 67 67 68 68 69 71 73 75 76 78 82 86 90 94 97 100 102 103 104
46 44 45 45 46 49 51 52 55 58 59 60 61 63 63 64 65 66 67 69 70 70 71 73 75 77 79 82 87 93 98 101 104 106 101 93 84 78
45 45 44 45 48 49 53 58 61 65 64 62 64 66 66 66 67 69 70 71 72 74 76 78 80 84 88 93 97 101 106 105 93 75 64 58 57 56
40 47 44 48 50 53 56 61 63 68 65 65 66 67 69 70 71 71 71 73 76 79 82 84 88 93 97 101 106 107 86 64 53 51 51 52 53 52
43 48 49 50 52 57 64 65 66 67 67 67 68 70 70 70 71 73 75 78 82 87 91 94 99 103 107 105 86 59 50 50 51 53 55 57 59 59
42 45 50 53 56 60 64 65 66 66 66 68 70 71 71 72 75 77 79 85 88 96 100 103 108 105 85 64 50 51 52 52 52 50 49 51 52 55
45 49 52 58 60 62 62 63 65 66 68 70 70 70 72 75 79 83 87 91 97 105 109 103 84 61 50 52 53 54 54 54 53 51 51 53 55 55
52 53 54 57 57 59 62 65 67 69 69 71 72 74 77 82 86 91 96 101 104 95 79 57 51 48 52 53 56 58 59 59 57 56 56 58 58 58
53 58 58 56 58 62 65 67 67 68 70 73 75 80 84 89 94 100 104 97 79 56 50 45 52 52 57 57 61 62 64 65 63 61 60 57 55 54
54 54 55 57 62 64 65 65 65 69 73 77 82 87 92 98 104 99 78 58 49 52 59 54 59 59 60 61 64 67 68 67 65 63 57 52 49 44
50 54 57 59 61 64 65 66 68 72 77 83 89 95 100 98 83 62 53 56 57 60 66 71 69 68 67 64 64 64 63 62 60 57 54 45 37 37
54 56 58 61 61 62 65 68 71 75 81 89 97 98 83 60 53 58 62 66 71 72 75 77 71 70 64 55 52 51 52 55 56 55 47 36 31 30
52 56 57 58 62 65 68 72 76 81 88 96 91 67 48 51 58 63 69 71 68 66 65 67 57 49 46 40 36 38 41 44 46 42 37 30 24 24
51 53 57 61 64 68 73 76 82 89 94 80 53 42 47 54 61 60 57 58 58 59 57 52 43 35 32 29 26 23 30 33 33 34 32 26 20 20
53 57 60 63 68 73 78 83 89 89 67 41 38 44 50 53 50 46 48 49 48 48 50 41 32 27 24 18 12 16 21 25 32 30 28 25 24 23
56 61 65 69 74 78 84 88 82 56 33 33 39 45 45 44 41 40 41 41 40 39 42 38 30 24 18 15 14 15 19 16 24 30 30 22 15 14
60 65 70 75 80 86 87 72 46 27 29 34 40 38 37 35 35 35 37 39 38 34 31 33 32 28 26 27 18 15 7 13 22 17 13 13 14 16
65 71 76 81 86 84 62 37 20 25 30 37 35 34 31 32 33 34 33 34 35 35 32 30 27 25 28 30 20 11 14 14 17 16 15 14 19 22
71 76 83 86 75 50 27 15 22 27 33 33 32 30 29 30 30 31 33 33 34 35 34 31 29 25 21 21 28 28 17 15 17 21 23 24 22 24
79 85 81 63 35 16 11 18 23 29 33 30 28 28 27 27 28 30 32 33 35 35 34 33 30 27 23 21 19 24 30 26 23 21 22 22 22 26
86 70 47 21 7 8 15 19 25 30 27 26 27 27 27 28 29 32 33 36 36 36 34 32 30 28 27 25 23 23 25 30 30 25 21 19 19 24
55 32 11 6 8 12 16 22 28 27 27 27 27 28 28 28 28 30 32 34 35 35 32 30 27 25 25 25 25 25 28 28 24 21 20 17 13 12
22 8 7 9 11 14 19 25 28 26 26 28 28 27 28 27 28 30 32 33 33 34 31 28 29 29 29 30 31 32 32 26 20 21 21 20 23 21

GFSNE_500_spd_066.txt.gz
Wind_Speed
54 53 53 53 49 44 47 46 47 48 49 51 54 58 60 59 62 63 65 65 65 65 67 68 69 70 71 71 72 71 71 71 74 77 80 83 86 89
53 53 52 55 43 48 50 48 49 50 51 53 56 60 66 63 63 66 67 67 67 69 70 71 71 72 72 73 74 75 77 80 85 88 91 94 96 99
50 49 50 46 47 49 52 48 52 53 55 56 62 64 66 66 66 68 69 70 71 71 72 73 74 74 76 79 81 85 89 93 97 99 102 104 107 107
36 47 47 49 46 50 58 50 56 57 58 59 65 65 66 68 68 69 71 71 71 73 75 77 79 83 86 90 94 97 102 104 105 104 100 89 77 60
49 48 49 52 46 47 51 56 60 61 62 66 65 65 67 68 70 71 71 71 74 77 82 86 89 94 98 103 107 106 103 95 86 72 55 49 49 51
45 48 50 48 50 50 49 56 60 64 63 64 65 66 69 71 71 73 73 75 78 84 90 95 100 105 105 102 95 81 68 55 47 45 46 48 50 50
46 45 49 47 56 54 57 59 63 61 63 66 66 68 70 71 73 75 77 81 85 93 99 101 98 87 74 62 54 53 52 52 51 51 51 52 52 52
50 50 53 51 53 55 61 65 60 63 67 67 67 69 71 74 76 80 84 88 94 100 95 71 62 61 64 63 62 62 61 61 59 58 58 57 56 57
46 44 47 51 57 61 63 62 65 66 67 67 69 72 75 79 81 86 92 97 92 72 61 59 69 68 71 72 72 72 71 69 66 64 63 62 61 61
44 46 50 53 56 59 62 60 62 64 65 69 72 76 79 83 88 92 94 77 58 63 69 63 63 62 64 65 66 68 68 67 65 66 64 63 63 62
43 46 49 54 58 57 59 59 62 65 69 74 78 81 85 90 92 85 62 54 56 54 55 55 54 57 60 56 51 51 52 54 56 55 54 55 54 52
46 51 52 52 55 56 59 62 64 68 72 78 82 87 91 86 69 51 53 49 43 42 49 46 49 54 50 35 25 30 36 42 45 46 44 42 40 33
48 49 52 53 56 59 62 65 68 72 78 81 86 89 73 51 45 50 47 42 43 43 46 44 42 44 44 37 21 25 30 34 37 36 34 28 22 19
47 49 51 55 59 62 65 70 74 79 82 86 83 60 40 41 45 43 40 41 43 41 41 43 42 39 35 31 26 26 28 27 25 26 26 25 21 17
47 50 53 57 62 67 72 77 82 87 85 67 41 31 36 41 38 36 38 39 41 42 41 40 40 41 40 34 21 26 22 25 30 26 25 26 23 17
49 54 59 64 68 73 80 86 87 74 46 27 26 32 37 35 34 34 35 36 38 41 46 44 41 39 37 32 24 18 24 17 23 26 21 13 7 10
52 58 64 70 76 83 87 78 52 27 18 23 28 33 31 32 32 32 34 36 38 38 39 41 41 38 38 39 32 24 15 20 22 22 20 17 17 14
57 64 71 77 84 77 53 29 15 16 22 28 30 29 29 30 29 31 33 35 36 40 40 39 35 32 33 36 38 35 34 26 25 25 24 21 21 24
62 69 76 77 57 37 18 15 19 22 28 29 27 27 28 28 27 28 32 32 36 39 41 40 35 30 26 28 36 36 27 28 26 27 26 22 20 28
67 75 71 47 23 14 17 18 23 29 29 26 26 27 28 28 27 29 30 31 34 36 39 40 37 34 31 26 23 27 33 29 25 21 21 24 26 26
72 66 35 14 18 15 18 23 27 29 26 26 26 28 28 27 25 27 29 33 36 39 40 39 37 36 34 34 30 26 26 27 27 22 17 14 14 17
59 24 17 18 16 14 19 25 28 29 27 27 27 30 28 26 26 27 30 32 35 37 38 37 36 35 36 34 27 25 23 23 26 29 31 27 22 15
20 20 18 19 15 15 19 24 28 29 29 28 29 29 28 26 26 28 32 34 35 35 38 36 35 35 36 32 32 28 29 28 25 28 33 32 26 17

GFSNE_500_spd_069.txt.gz
Wind_Speed
56 57 55 52 54 53 53 53 53 55 49 51 54 52 54 56 57 58 57 61 63 65 63 63 65 66 67 69 71 72 73 74 75 75 75 74 74 75
56 55 55 55 57 56 52 50 53 51 48 53 58 58 57 57 59 59 62 67 65 64 65 68 70 70 71 71 72 72 73 75 76 78 79 81 83 84
56 53 54 56 58 49 49 52 51 51 54 53 61 63 59 64 62 66 67 65 66 69 70 71 72 71 72 72 74 76 78 81 84 87 91 94 96 98
49 51 55 54 53 59 47 54 56 56 57 59 56 56 59 62 65 64 64 66 70 70 71 72 72 73 77 80 83 86 90 93 97 100 102 105 107 106
50 52 53 52 48 55 57 62 53 56 54 61 57 60 62 61 66 65 67 68 70 71 72 74 77 81 85 90 95 99 100 100 100 97 89 81 77 74
48 48 48 51 51 45 55 53 54 58 60 55 58 64 66 66 68 67 68 70 70 73 76 80 85 91 97 100 94 86 80 75 73 72 68 62 57 52
43 45 44 47 51 51 52 57 59 56 58 65 68 67 68 68 69 68 68 70 73 78 80 87 92 93 81 73 73 72 72 73 74 73 72 66 60 54
38 41 47 49 51 51 51 49 56 62 65 65 66 65 67 67 67 68 72 74 77 85 87 89 82 64 63 58 62 66 69 71 73 73 74 71 66 62
39 42 49 49 47 46 51 59 61 63 65 63 66 66 65 67 69 74 78 81 86 88 86 67 57 49 53 57 60 62 61 58 54 54 60 61 62 65
35 41 42 39 45 50 54 57 60 62 64 64 65 68 70 73 76 79 83 86 85 65 56 41 44 46 50 53 53 56 57 51 46 45 40 41 46 51
38 36 40 44 47 49 52 56 59 60 62 65 68 72 76 80 83 86 86 73 51 47 42 40 41 42 43 48 49 49 50 49 45 40 38 32 28 32
37 43 44 46 49 51 53 55 57 61 66 72 76 79 84 88 86 71 52 39 40 33 39 39 38 42 39 43 45 46 43 46 43 36 31 25 20 19
38 43 46 47 49 51 54 57 62 67 73 78 85 88 82 65 47 37 36 36 33 34 40 38 38 40 42 38 41 42 42 40 38 37 34 28 21 16
40 42 44 46 50 54 58 64 69 74 81 85 77 60 41 32 32 37 36 34 34 36 39 39 40 43 41 37 35 37 36 39 33 31 32 27 20 13
38 41 44 49 53 57 63 69 75 81 74 58 38 27 26 32 35 33 33 31 34 38 40 42 43 42 42 39 33 31 24 33 33 34 33 28 20 19
40 44 48 52 57 64 70 76 72 55 37 24 23 28 32 32 30 29 29 30 32 37 40 42 43 42 40 36 33 29 24 22 23 27 28 28 27 20
43 47 52 57 64 70 72 54 34 21 22 25 29 30 27 29 30 29 28 29 33 32 34 39 41 39 39 41 34 31 27 27 24 26 26 27 29 25
46 51 56 63 69 60 32 20 23 23 28 29 26 25 27 29 29 29 28 29 30 34 37 37 37 35 34 36 40 33 32 30 32 30 25 21 25 32
49 54 61 64 47 24 26 19 26 27 29 28 26 26 27 29 28 26 25 27 30 33 37 39 40 36 29 28 38 39 32 26 21 20 17 20 22 28
51 58 58 39 25 28 19 22 25 28 30 28 26 26 28 26 24 23 25 26 29 31 36 39 42 40 35 30 28 32 35 33 28 19 14 17 20 21
53 56 39 28 27 28 19 23 26 29 30 29 27 26 27 25 23 24 26 31 31 34 37 39 43 41 36 33 29 28 31 32 28 23 19 19 18 21
51 46 30 28 28 26 22 24 25 28 29 30 29 28 28 26 26 27 30 30 32 34 37 38 40 38 38 37 34 28 26 30 33 33 33 31 27 21
47 35 29 29 27 26 25 25 26 26 28 30 30 30 29 29 30 31 34 34 33 32 35 35 39 40 40 38 33 29 28 30 27 25 28 34 34 32

GFSNE_500_spd_072.txt.gz
Wind_Speed
61 51 57 58 58 55 52 55 57 61 66 60 59 60 60 52 53 54 54 55 56 59 60 61 62 64 66 67 66 68 69 70 71 72 73 74 75 77
58 60 63 64 60 59 56 58 57 66 60 59 63 62 57 56 52 58 59 62 57 61 64 64 67 70 69 69 68 69 70 71 71 72 73 75 77 79
58 59 57 51 65 59 57 58 55 58 59 58 56 53 50 56 59 65 64 62 62 65 69 70 71 70 70 70 71 71 70 72 75 78 81 85 88 91
55 57 57 60 59 62 57 55 51 57 57 54 51 55 64 57 60 60 63 63 66 71 73 72 70 70 70 70 71 74 77 80 83 87 91 96 99 100
50 53 53 54 53 53 57 56 53 54 56 55 59 57 59 61 62 60 62 70 69 69 70 71 71 73 74 75 78 81 84 88 93 92 88 82 78 76
48 49 49 50 53 54 52 52 53 52 55 60 59 59 56 58 62 68 67 67 67 69 70 71 74 78 80 81 86 90 90 84 74 64 62 65 70 74
42 44 46 49 51 48 47 47 54 56 59 58 53 57 62 68 67 67 67 67 68 72 73 76 81 85 88 90 87 81 69 58 57 58 57 63 70 71
35 37 41 42 43 45 48 53 56 55 56 55 59 63 63 64 65 65 67 69 72 78 80 83 89 88 78 65 60 53 52 54 53 53 50 56 61 63
30 34 38 38 38 42 45 47 47 51 57 58 57 60 61 63 65 68 72 75 79 86 89 89 79 57 51 49 51 53 53 54 54 49 45 51 53 52
33 36 38 38 39 41 43 47 50 52 54 56 57 59 62 66 71 75 79 84 89 87 78 61 44 41 42 48 50 53 56 53 51 46 41 42 45 44
28 31 31 35 39 44 48 49 50 52 54 58 61 64 69 74 77 82 86 82 68 47 41 34 35 34 39 44 47 53 55 52 47 44 40 37 38 38
25 30 34 38 41 44 46 47 50 54 58 62 67 72 76 81 82 74 60 38 32 34 34 26 32 36 33 39 44 48 48 46 42 42 39 34 31 33
30 33 36 38 41 43 46 50 54 59 63 69 75 78 76 66 51 34 31 33 32 29 29 27 31 34 35 38 39 44 41 40 38 40 38 36 33 30
32 34 36 39 42 46 50 55 60 64 70 74 69 57 44 34 32 34 33 29 30 28 29 30 32 34 36 38 36 37 36 38 36 33 36 40 38 34
33 36 39 42 46 50 54 59 64 68 65 49 37 34 36 38 34 29 30 30 30 29 31 33 33 35 39 41 37 35 31 34 33 33 32 33 35 36
36 39 42 45 47 52 58 62 62 46 35 36 38 37 34 29 29 30 31 31 31 31 35 33 35 37 39 42 40 34 32 30 33 32 31 35 33 30
38 41 42 43 49 56 57 52 35 37 30 34 34 32 29 29 30 32 30 29 28 28 30 33 35 36 38 40 39 37 35 35 31 26 24 27 30 27
39 40 40 46 50 53 45 37 34 28 29 32 33 31 29 29 31 30 28 27 27 29 31 32 33 34 37 40 42 35 35 33 30 28 25 21 25 29
38 39 43 44 49 44 38 32 33 27 29 32 32 31 28 28 28 27 27 27 29 31 33 34 34 34 33 33 40 41 32 30 24 25 25 24 22 25
37 40 41 43 45 39 34 34 31 31 30 31 32 31 29 28 28 28 28 27 29 31 33 35 37 38 38 35 31 34 35 28 26 25 24 23 24 26
37 40 41 43 43 36 34 33 32 31 31 31 31 32 31 29 29 28 29 30 32 33 33 35 38 40 41 40 37 34 34 33 29 27 22 17 16 18
37 41 40 41 40 37 35 33 32 31 31 30 30 30 30 29 29 28 29 31 33 35 35 35 38 39 40 40 38 32 27 26 29 25 26 27 30 26
36 39 39 41 39 37 35 33 32 31 31 31 31 30 28 29 30 29 30 33 37 37 34 32 35 38 40 41 36 28 24 19 16 23 30 29 31 33

GFSNE_500_spd_075.txt.gz
Wind_Speed
63 64 60 59 57 59 67 53 48 55 62 61 62 62 63 66 61 56 61 64 63 53 54 55 59 58 56 56 58 61 63 64 70 71 70 70 72 74
65 65 63 60 56 54 58 53 63 70 58 59 56 62 64 61 61 59 58 52 52 58 54 57 58 57 58 59 63 66 69 72 70 71 71 72 73 73
61 61 61 60 59 57 66 58 47 54 49 53 53 62 60 62 63 60 58 59 55 57 58 60 58 59 62 68 71 69 69 70 72 72 72 73 75 77
56 55 55 56 58 61 60 68 68 70 74 68 65 63 62 60 57 58 58 65 59 53 56 60 63 68 70 69 68 68 70 72 73 75 77 80 82 84
55 54 53 54 56 58 60 64 65 65 65 64 63 61 58 56 55 57 60 57 56 60 64 67 68 68 68 68 69 71 74 77 79 82 84 88 90 91
49 51 53 52 51 52 53 52 55 57 57 58 56 53 55 59 59 58 58 62 63 65 66 67 67 69 71 74 76 77 80 84 88 90 85 74 62 58
41 44 45 47 47 43 42 44 47 49 49 53 56 59 58 55 57 59 61 60 61 63 64 67 70 75 78 81 84 87 88 85 73 58 48 50 53 55
28 40 33 40 40 35 39 41 41 45 46 51 53 54 56 56 56 57 59 61 63 69 70 75 78 81 85 86 82 71 57 45 40 45 46 49 52 54
25 29 28 32 36 39 43 41 42 45 45 48 50 53 55 54 55 59 62 65 71 76 76 79 83 77 65 51 44 40 37 40 45 44 44 45 46 47
24 28 31 38 39 38 37 40 42 44 46 48 50 52 56 59 63 66 70 74 78 78 77 69 51 38 37 39 36 38 41 44 44 44 43 42 41 38
27 30 31 29 30 33 36 38 40 43 47 50 54 58 62 65 69 73 73 70 62 50 45 36 36 29 30 35 36 39 40 43 44 46 45 43 43 39
22 23 26 29 31 33 35 39 43 46 49 53 57 62 66 68 66 59 47 39 37 38 37 27 33 30 25 34 38 39 41 43 44 43 44 45 41 38
25 26 28 30 32 35 38 41 43 47 53 58 61 63 57 48 44 45 43 39 34 31 29 28 29 29 30 31 35 38 39 41 41 42 42 43 43 40
25 27 29 32 35 38 41 42 47 51 56 59 53 44 44 42 42 38 32 30 32 31 32 29 28 29 31 32 33 37 39 39 37 35 37 39 39 37
29 31 33 36 38 40 41 45 48 53 56 49 43 39 39 41 36 34 33 32 35 32 31 29 28 29 31 33 33 36 37 35 36 32 32 31 29 29
30 33 35 37 39 39 42 45 50 52 49 42 38 36 38 39 35 31 32 34 32 31 31 30 30 31 32 35 36 35 36 31 31 31 26 28 30 27
33 34 37 39 39 40 42 45 48 48 41 40 35 35 36 36 35 32 31 30 29 28 30 33 33 31 32 37 34 36 33 31 31 28 25 24 30 35
35 36 38 39 39 40 42 43 45 44 40 36 35 35 36 35 34 33 31 30 29 29 32 33 31 29 32 37 42 38 36 34 34 34 34 28 30 37
36 37 39 38 39 41 41 42 43 41 38 36 34 33 34 33 33 32 30 29 28 30 33 33 30 29 27 30 37 43 37 36 31 31 33 28 23 25
38 39 39 38 38 39 39 40 42 40 38 36 34 34 33 32 31 30 29 26 26 29 33 35 32 31 31 30 30 38 46 38 30 26 24 19 16 20
39 39 39 38 38 39 38 39 40 40 38 36 35 34 33 32 31 30 29 29 29 30 33 36 37 36 36 36 35 38 41 39 33 22 16 16 17 18
39 38 39 38 38 40 40 39 37 38 37 36 34 34 35 35 33 31 31 30 30 32 33 36 39 39 37 37 37 39 35 32 30 24 24 24 18 15
39 39 38 38 38 38 39 37 37 37 36 34 33 35 36 35 34 32 31 31 32 32 33 34 38 42 40 38 39 39 33 27 22 23 31 30 26 28

GFSNE_500_spd_078.txt.gz
Wind_Speed
64 64 63 63 61 61 60 60 57 58 62 67 63 58 52 59 57 46 52 55 57 57 57 54 55 51 50 53 49 52 56 58 56 57 57 58 62 66
66 65 62 61 61 61 60 59 58 59 64 50 62 64 58 47 45 45 53 60 63 61 59 57 56 58 57 55 55 55 56 55 58 59 63 67 69 70
61 62 62 60 59 57 58 58 59 61 62 55 54 57 59 65 63 67 65 62 60 60 57 54 57 60 61 56 54 55 57 61 64 67 68 69 70 70
55 54 54 55 54 54 53 55 56 60 65 68 70 71 68 72 70 65 62 60 56 56 58 61 61 57 56 59 61 62 61 63 64 66 67 69 71 73
50 48 50 50 53 53 52 51 54 55 59 60 61 61 61 61 61 59 61 58 59 60 60 59 58 57 58 59 60 61 62 65 67 70 72 74 77 81
47 48 49 42 44 46 45 47 50 54 56 54 54 54 53 54 54 56 57 59 58 58 59 58 56 58 60 62 64 67 69 72 74 76 79 82 84 83
27 30 35 30 31 33 40 38 44 48 48 42 48 47 49 50 52 52 53 53 53 54 56 60 60 63 67 70 73 75 76 79 81 81 76 65 51 43
29 17 20 22 29 36 34 30 37 39 40 46 45 46 50 52 48 49 52 54 56 60 61 68 67 72 75 77 76 76 74 67 56 46 36 34 38 41
23 23 27 28 28 28 28 35 38 38 39 41 42 42 43 46 49 52 56 59 63 65 65 69 70 68 66 58 52 47 42 37 33 33 36 37 38 40
23 22 24 24 27 30 33 34 33 34 35 36 39 42 45 49 53 57 61 64 66 65 60 50 48 42 42 43 39 34 33 32 35 35 35 38 39 40
21 24 23 24 25 28 30 30 30 32 35 36 39 44 48 53 58 59 55 50 48 49 46 42 42 36 36 37 35 33 31 35 34 34 37 39 39 39
24 26 27 27 27 27 28 31 33 35 36 39 43 47 53 57 53 47 44 43 41 38 34 29 34 30 28 34 33 33 35 35 35 36 40 41 40 40
25 26 27 27 28 30 32 34 36 36 38 42 46 50 54 50 43 40 40 38 35 36 32 31 32 31 29 28 33 35 33 35 36 39 40 38 37 35
26 27 29 31 33 34 35 37 37 38 39 43 47 50 52 44 40 39 39 38 34 32 35 30 25 25 24 26 29 32 33 35 35 36 35 35 34 30
30 31 33 34 36 36 37 38 38 40 42 43 46 49 46 40 38 38 38 38 36 33 33 29 26 26 27 28 28 29 28 33 36 34 34 34 33 33
33 34 35 36 37 38 39 38 39 41 42 42 44 46 42 41 38 38 37 36 35 34 34 31 29 29 30 30 29 29 31 30 31 33 33 35 35 37
34 35 36 37 38 39 39 38 39 40 41 41 44 44 40 39 38 36 35 34 33 31 31 30 31 32 33 31 30 31 29 31 32 35 35 31 35 35
36 37 38 39 39 40 39 38 39 40 41 42 41 40 38 37 37 36 34 32 30 30 28 28 28 29 29 33 34 30 32 34 36 37 36 29 29 30
37 38 38 38 39 40 39 38 39 40 41 38 38 39 38 36 35 34 33 32 31 29 30 30 30 30 28 27 34 38 32 33 34 33 29 24 19 22
38 38 38 39 40 40 40 39 39 39 39 39 40 40 39 36 35 35 35 34 32 30 31 32 32 31 31 29 27 34 42 37 37 29 25 21 14 18
38 38 38 40 42 41 39 39 38 39 38 40 41 43 41 37 35 37 36 34 32 31 30 32 33 33 33 33 34 35 38 42 41 32 22 18 20 25
40 39 40 43 43 41 39 39 40 40 40 39 43 45 39 36 35 36 34 33 33 32 30 31 32 33 34 34 36 34 33 37 40 37 31 19 18 20
39 40 42 43 42 40 39 39 42 42 43 43 45 46 38 35 34 34 32 33 33 30 30 30 31 32 34 35 38 38 35 36 34 30 33 32 27 26

GFSNE_500_spd_081.txt.gz
Wind_Speed
51 54 58 61 64 63 62 62 62 63 62 60 59 58 61 59 63 54 53 56 45 48 51 47 51 55 56 54 54 54 53 51 53 52 51 53 57 55
50 54 60 64 66 63 59 57 57 57 57 56 50 56 45 58 62 59 63 65 59 60 62 70 65 58 56 56 54 50 51 52 54 58 58 58 59 58
50 51 48 55 61 57 54 54 53 53 56 57 48 54 62 61 63 64 67 71 63 61 58 59 58 57 55 52 53 56 56 56 55 56 55 57 60 62
44 39 44 44 48 49 48 49 51 50 51 44 55 51 52 54 55 57 57 58 57 55 53 54 55 54 56 56 56 56 54 56 58 59 60 61 64 65
32 34 38 40 38 35 40 45 42 42 45 37 43 46 48 53 54 55 53 52 51 53 52 53 51 51 50 50 51 52 53 56 57 59 61 63 65 68
30 32 32 31 30 30 31 33 28 32 34 38 39 41 41 42 42 45 46 49 53 53 53 50 52 53 54 57 58 58 60 62 63 65 67 70 73 75
30 29 23 27 29 28 28 25 31 31 31 31 38 38 40 42 44 47 47 45 48 50 53 56 59 62 64 66 67 67 68 69 70 71 72 74 75 75
30 31 29 29 28 29 26 26 28 30 31 36 40 38 37 37 39 41 43 46 49 52 59 62 64 67 68 68 67 66 63 59 56 53 50 46 41 39
29 28 25 24 23 25 26 28 30 31 32 34 35 34 36 37 39 42 45 51 56 58 62 63 58 57 56 55 53 53 51 48 42 37 33 32 33 36
29 28 26 26 28 30 30 30 31 31 32 33 35 37 36 38 41 45 51 54 57 55 49 49 49 48 47 45 41 38 34 32 33 32 30 33 35 34
29 29 28 28 28 28 30 31 31 33 34 35 36 37 38 39 43 47 50 53 51 48 44 41 38 37 40 39 39 36 33 30 29 31 33 33 35 36
27 26 27 29 29 29 31 32 34 35 36 36 36 37 38 41 44 47 50 51 44 43 40 38 37 33 36 38 37 34 31 30 31 31 31 33 36 37
26 28 27 29 30 32 34 35 36 37 37 37 37 38 40 40 43 45 46 44 43 39 37 35 33 31 29 28 32 32 32 34 33 33 33 37 38 37
28 28 30 32 34 35 36 37 38 38 38 38 39 39 40 43 44 44 43 41 40 38 36 34 31 28 27 27 28 33 34 35 35 35 36 37 37 36
28 31 33 33 34 36 38 38 39 39 39 39 39 40 41 42 43 44 43 41 39 37 35 32 30 27 27 27 28 32 31 33 33 32 35 37 38 38
30 33 34 36 37 38 40 40 39 41 40 39 39 41 42 42 43 43 42 41 39 37 35 32 30 27 27 28 29 28 30 29 30 32 32 34 38 39
32 34 35 37 38 40 41 40 41 42 41 39 39 41 41 42 42 43 43 41 37 36 36 34 31 29 29 29 28 28 27 29 29 30 31 34 40 35
32 34 36 38 40 40 40 40 43 45 41 40 40 40 41 42 44 46 46 40 37 37 37 35 33 30 30 33 33 28 29 28 28 30 31 32 34 34
33 35 38 40 41 42 42 43 45 45 41 40 40 41 42 43 45 48 47 40 38 38 38 36 34 31 30 28 35 34 29 30 27 31 32 32 27 30
36 38 39 40 41 41 42 46 47 43 41 40 42 42 43 45 47 49 45 38 36 37 35 36 34 32 32 29 28 36 40 30 30 32 31 31 27 25
37 39 40 40 41 42 46 48 46 43 41 41 42 43 44 47 49 48 42 36 34 34 32 34 34 33 32 30 29 30 34 35 36 36 33 28 23 27
39 40 40 40 41 46 50 48 46 44 43 42 44 45 49 52 51 49 42 34 32 31 29 30 30 30 31 30 29 30 32 34 38 41 44 33 22 18
39 40 40 41 45 50 49 47 46 45 44 44 45 49 55 56 53 47 41 34 32 30 28 28 29 29 29 30 30 30 32 33 35 34 42 38 28 22

GFSNE_500_spd_084.txt.gz
Wind_Speed
40 37 39 42 46 51 49 50 54 59 66 56 53 51 51 51 56 55 52 51 61 50 52 48 54 51 65 62 60 56 58 63 54 52 54 55 56 53
35 38 40 43 47 46 45 51 51 51 52 47 44 43 47 47 49 51 52 51 58 61 53 52 55 57 54 54 55 54 54 54 52 53 56 54 53 52
35 39 42 44 46 40 42 49 43 41 40 43 44 46 43 46 48 48 44 45 45 46 47 49 51 51 49 49 49 52 54 53 52 54 55 56 57 58
38 40 42 43 44 40 36 38 37 35 34 37 40 39 39 38 37 41 45 43 43 40 40 41 43 44 47 47 48 51 50 50 51 54 55 56 57 58
39 40 39 43 41 38 33 34 34 32 31 31 29 28 31 34 38 38 40 40 41 43 43 45 47 43 44 45 47 48 50 52 52 53 55 55 58 59
38 38 38 39 38 35 35 36 35 33 31 30 32 32 31 32 38 40 40 40 40 38 39 43 44 46 49 52 54 56 57 59 60 61 62 63 65 66
37 36 36 36 36 37 37 34 31 31 34 35 34 33 36 37 37 37 38 39 39 41 44 48 53 56 59 62 65 66 66 64 61 60 60 62 63 66
35 34 35 35 33 32 31 32 34 34 34 34 35 36 36 35 36 38 39 40 42 45 49 53 57 58 59 59 57 54 53 53 53 52 53 52 50 47
33 33 32 32 32 33 32 32 32 32 33 33 35 36 37 38 40 39 40 42 43 45 49 51 54 55 52 50 48 47 44 42 39 36 35 35 36 35
31 31 32 31 30 29 30 31 31 33 34 35 36 37 38 39 39 39 40 42 43 45 48 49 50 49 50 47 45 41 39 39 38 36 34 32 32 32
31 32 29 27 29 30 30 31 32 35 36 37 38 38 39 39 39 40 41 42 44 45 46 46 46 44 45 44 42 38 37 34 31 31 31 31 31 33
30 29 27 27 29 30 32 34 35 37 39 40 40 40 40 41 41 41 41 42 42 44 45 45 45 42 41 43 41 38 35 32 29 29 29 31 33 33
28 26 27 28 29 31 33 35 37 39 41 42 41 41 42 41 41 41 41 42 43 43 45 45 43 39 36 36 38 36 34 35 34 35 34 32 32 32
26 25 27 29 31 33 34 37 39 41 42 42 42 43 43 41 41 41 42 42 43 44 46 46 42 39 36 33 31 33 31 33 33 34 33 34 35 34
25 26 28 30 32 34 35 38 41 42 42 41 43 45 44 41 41 41 42 42 45 46 48 47 41 38 36 34 31 31 29 30 33 31 33 34 34 36
25 27 29 31 33 35 37 39 41 41 41 42 45 48 44 41 41 42 42 44 46 49 50 49 41 37 37 36 34 31 30 28 29 30 28 31 34 36
27 29 31 33 35 37 39 41 41 40 41 46 49 48 44 42 42 43 44 46 47 49 51 49 41 37 38 37 35 34 30 31 29 29 28 31 35 37
29 31 33 36 38 40 41 42 40 40 45 49 49 46 44 43 44 44 44 46 49 51 50 46 41 37 37 37 36 34 31 31 30 32 30 29 30 36
31 33 36 39 39 41 42 41 40 44 49 50 47 45 44 44 45 46 46 48 52 52 49 44 40 36 33 33 36 38 32 34 32 32 31 30 29 36
33 35 37 38 40 41 41 40 43 47 50 48 45 45 45 45 46 47 49 53 54 51 47 43 38 35 34 32 30 35 35 32 32 32 32 29 28 37
35 37 38 39 40 41 41 41 45 49 51 47 45 46 46 45 47 49 55 57 53 49 42 41 38 34 31 30 28 28 34 37 35 33 33 28 24 29
36 38 39 39 41 41 41 42 46 50 52 46 46 46 46 46 49 54 58 56 52 48 41 37 36 34 33 32 29 27 30 35 36 36 38 33 27 23
38 39 39 40 40 41 43 46 48 53 50 46 47 47 47 48 53 57 57 52 47 45 41 35 35 34 33 32 30 28 31 31 33 33 37 39 37 31

GFSNE_500_spd_087.txt.gz
Wind_Speed
37 36 37 38 34 37 41 45 48 47 46 45 48 45 42 42 43 42 44 43 49 47 43 41 36 36 43 51 43 45 46 49 50 49 48 47 48 52
38 38 38 32 35 40 43 46 48 46 44 44 44 43 41 39 39 41 42 40 38 44 43 38 39 43 39 39 42 42 43 43 44 44 45 47 50 52
38 37 31 34 39 42 44 44 45 44 42 43 43 41 38 36 35 36 34 34 36 38 37 37 36 36 37 37 37 38 39 41 44 45 46 47 51 53
34 32 33 37 41 42 42 43 42 40 41 45 44 41 38 38 41 37 35 33 34 39 38 37 37 35 35 35 36 38 40 41 44 45 46 49 50 51
31 32 35 39 41 42 41 42 40 41 43 42 40 38 38 39 38 36 37 39 39 37 35 36 36 37 38 39 42 45 48 50 52 53 54 56 57 57
31 33 37 40 41 41 41 41 40 38 37 37 40 39 38 37 37 37 37 37 37 37 38 39 38 41 42 46 48 50 51 52 54 56 57 59 61 63
33 34 39 39 40 41 40 38 38 37 37 37 36 35 35 36 37 38 38 39 40 38 39 39 42 44 48 50 53 52 54 54 51 49 48 49 50 52
33 37 37 39 40 38 38 38 36 34 33 34 34 36 37 38 39 40 40 41 41 41 43 44 46 46 47 48 49 52 52 48 45 46 45 43 42 42
35 37 38 39 37 37 36 33 31 33 34 34 35 37 39 41 42 42 42 42 42 43 44 44 44 44 45 46 49 51 49 44 43 41 40 41 41 40
35 35 36 34 35 35 32 31 32 32 33 35 37 39 41 43 43 43 43 43 43 43 43 44 44 47 44 45 50 51 46 41 41 37 37 35 35 34
33 33 32 33 34 31 31 31 31 32 34 36 38 40 42 43 42 43 43 44 43 42 42 42 45 44 46 47 49 49 43 40 39 36 33 32 32 31
31 30 31 32 30 29 29 30 32 34 35 37 40 42 42 42 42 43 46 44 42 42 43 43 44 45 48 50 50 47 41 38 37 34 31 31 31 32
28 31 31 30 28 28 30 32 33 35 37 39 41 42 42 42 44 47 48 44 43 43 43 44 45 46 48 49 48 46 42 39 36 35 32 31 32 30
30 31 29 28 27 29 31 32 35 37 39 41 43 43 42 44 48 49 46 44 44 44 44 45 46 47 48 48 43 45 42 40 37 36 34 33 32 28
30 28 28 28 28 31 32 35 37 40 42 43 44 43 43 47 50 48 43 43 44 45 45 46 47 49 50 48 43 43 40 40 39 37 34 34 32 31
27 28 28 29 30 32 34 37 40 42 44 44 44 44 47 49 50 44 42 43 44 46 46 47 49 50 52 50 45 42 41 37 37 36 34 34 34 32
27 28 28 29 31 34 37 39 41 42 44 43 44 46 48 52 48 43 42 43 44 46 49 50 52 55 52 47 43 40 38 36 35 35 35 33 35 33
28 29 29 30 33 36 38 40 41 42 43 43 45 48 51 53 46 44 43 44 45 47 50 54 58 57 50 44 41 38 37 35 36 34 34 31 32 36
29 30 31 32 35 37 40 42 43 43 43 44 46 51 55 49 44 45 45 45 46 48 54 58 58 52 45 39 37 38 34 34 34 33 33 33 30 33
31 32 33 35 38 40 41 42 42 43 43 44 48 51 55 46 44 45 46 47 47 51 56 58 56 50 44 39 31 37 35 31 33 31 32 34 32 31
33 34 36 37 39 41 42 42 43 43 43 46 51 53 52 47 46 48 49 50 50 53 56 55 53 49 45 41 31 32 36 35 33 31 31 34 34 30
34 36 38 39 41 42 42 42 43 45 47 51 54 52 51 50 49 50 50 52 53 54 57 53 50 48 46 42 33 31 33 35 35 33 33 32 32 29
38 38 39 41 42 42 42 43 44 47 50 53 53 52 51 51 51 51 52 54 54 56 57 53 49 47 45 43 36 32 32 34 32 31 34 36 35 34

GFSNE_500_spd_090.txt.gz
Wind_Speed
45 43 41 39 37 37 37 32 33 37 39 41 43 43 41 42 44 41 39 38 41 40 35 34 33 35 34 37 37 38 36 39 38 36 41 41 43 46
43 41 39 37 37 38 32 33 36 40 41 42 42 43 41 42 44 41 40 39 38 38 34 33 34 36 35 33 32 33 33 34 33 35 38 40 42 44
42 41 38 38 37 33 33 35 39 41 43 44 43 42 43 44 41 39 40 39 39 36 36 37 37 36 35 33 32 32 32 32 33 35 37 39 42 44
42 39 38 37 33 32 34 37 41 42 43 43 43 41 41 40 40 40 38 36 36 37 37 36 35 35 35 34 34 34 35 36 38 40 42 45 47 49
38 38 37 33 32 33 35 39 41 41 44 43 41 40 39 38 37 35 36 36 37 37 38 39 39 39 38 37 39 39 40 42 44 47 48 49 51 52
37 37 34 32 31 32 37 39 40 42 42 42 39 37 35 34 34 36 37 38 40 41 41 43 41 41 40 41 41 42 43 44 44 44 48 50 52 53
36 33 31 31 30 35 37 38 40 40 41 38 34 33 34 33 36 38 39 40 42 42 44 42 42 42 42 43 44 45 44 45 42 45 48 50 50 48
32 30 31 30 33 36 35 37 36 38 35 33 34 34 33 35 36 38 40 43 44 43 42 42 43 43 43 43 43 44 46 44 44 46 49 49 45 45
30 30 29 32 34 34 34 34 36 35 32 33 33 33 34 36 38 40 42 44 43 43 43 44 45 44 43 42 44 45 44 43 43 45 47 45 43 43
29 29 32 33 33 32 32 34 33 31 31 32 33 35 36 37 39 42 43 44 43 43 46 47 45 44 42 43 44 44 44 43 44 45 45 42 41 40
28 31 32 32 31 31 33 33 30 30 30 32 34 36 37 39 41 43 45 44 45 47 48 46 44 43 44 45 45 46 46 46 46 46 44 40 38 36
31 30 30 30 30 32 33 31 29 30 32 34 35 37 39 41 43 44 45 46 49 50 47 42 42 42 43 44 47 47 47 48 48 47 43 39 37 34
28 29 29 29 31 33 32 30 29 31 33 35 37 39 41 43 44 45 45 47 50 51 44 41 42 41 42 44 48 49 50 52 52 50 43 38 37 33
27 27 28 30 31 31 30 30 31 33 35 37 39 41 42 44 45 46 48 51 54 48 42 40 41 41 42 43 46 49 53 54 51 46 41 38 38 34
26 26 28 28 29 29 29 30 32 34 37 39 40 42 44 46 46 46 50 54 50 45 43 42 42 41 42 44 46 51 53 50 48 43 38 37 37 35
25 26 26 26 28 28 29 31 33 35 38 40 41 43 45 46 45 48 52 51 46 45 44 44 43 42 43 48 50 51 51 46 44 39 35 35 35 34
26 27 27 27 29 29 30 31 34 37 40 41 42 44 45 46 47 51 51 49 45 45 46 46 44 44 45 49 51 50 47 45 42 36 34 32 35 35
27 27 28 28 29 29 31 33 35 38 41 42 43 44 45 46 50 51 49 48 47 47 48 49 49 49 48 51 51 47 46 43 40 34 32 28 28 34
24 26 27 28 29 30 32 35 38 41 42 42 43 44 46 49 51 51 50 48 48 48 49 49 50 50 49 50 49 48 45 43 40 34 32 28 26 28
26 27 29 30 30 31 34 36 39 42 44 43 44 44 46 49 53 52 50 49 50 50 51 52 54 53 52 51 48 46 47 41 39 35 33 29 28 26
29 30 30 32 34 35 36 38 41 43 44 45 46 47 49 51 54 52 52 52 52 53 54 56 57 56 55 54 50 45 44 44 39 35 34 31 29 26
32 32 33 35 36 37 39 40 42 44 44 47 48 49 51 53 54 54 55 55 57 58 58 58 60 60 59 56 52 46 41 43 41 37 34 34 31 26
34 33 35 37 38 40 40 41 43 44 46 48 48 51 51 53 54 56 58 60 61 62 62 62 63 63 62 59 54 48 41 39 39 39 35 35 33 30

GFSNE_500_spd_093.txt.gz
Wind_Speed
50 47 45 45 45 42 41 40 39 39 34 32 35 37 39 40 41 40 40 41 38 37 37 37 38 35 36 36 36 35 34 34 32 32 32 32 34 37
47 44 45 44 42 42 39 37 38 36 32 34 36 38 39 40 40 40 41 39 39 38 36 34 35 35 36 36 36 35 35 33 32 32 33 33 34 36
44 43 43 42 42 40 38 37 37 33 34 35 38 38 39 39 40 40 39 38 36 34 35 36 36 37 39 39 38 37 36 34 33 34 34 35 37 39
46 43 42 41 40 39 39 38 34 34 34 37 37 39 38 39 40 38 36 33 32 34 35 36 39 41 41 41 40 38 37 36 37 37 39 40 41 42
44 43 42 42 40 40 39 35 34 34 35 35 37 37 37 37 35 33 33 32 33 35 36 38 40 42 43 42 40 40 39 39 38 39 40 41 42 43
43 44 42 40 40 40 36 33 33 34 35 36 35 35 35 33 32 32 31 33 34 36 38 40 42 44 44 43 43 43 42 41 41 41 42 43 44 44
44 41 38 39 39 35 32 31 32 35 34 33 34 34 32 30 30 30 32 34 36 37 39 40 44 45 44 43 44 44 43 41 40 42 44 46 44 46
34 37 41 37 33 31 30 31 33 33 32 33 33 31 30 30 30 31 33 36 37 38 42 43 45 46 46 47 47 45 41 40 41 43 45 45 45 44
40 38 34 31 30 29 29 32 32 31 32 33 31 29 29 29 31 33 35 37 38 40 44 45 46 47 47 47 44 43 41 42 43 44 46 47 47 46
34 31 28 28 27 28 30 30 31 31 32 32 29 29 29 31 33 35 36 37 40 43 46 48 49 50 48 44 42 41 41 42 42 44 46 47 47 47
27 26 26 26 28 29 29 30 31 32 32 30 29 30 31 34 36 37 38 38 41 45 47 48 49 48 45 41 41 41 40 40 41 42 44 45 47 50
24 23 25 28 28 28 29 29 31 31 30 29 30 31 33 36 37 38 39 41 44 48 48 47 47 47 42 41 42 41 41 40 40 40 43 48 50 49
23 24 25 27 28 27 28 30 30 29 29 30 31 33 35 36 38 39 40 42 46 49 46 45 46 44 41 41 43 42 42 42 42 44 47 48 47 44
24 25 25 26 27 26 27 27 27 27 28 30 32 34 36 38 39 40 42 44 48 47 44 43 45 44 42 40 41 43 44 44 46 49 48 46 44 41
23 24 26 26 25 24 23 24 25 27 29 30 32 35 37 39 39 41 43 46 49 46 45 45 44 43 42 42 42 44 46 47 48 49 48 44 42 40
23 24 23 24 24 25 28 27 27 28 30 32 34 36 38 39 40 42 45 47 48 46 46 46 45 44 44 43 44 45 47 46 48 48 45 43 42 39
21 22 24 24 25 26 26 26 28 30 31 33 35 37 40 42 42 44 46 48 49 50 49 48 47 46 45 46 47 48 48 49 48 46 45 42 40 38
24 24 23 23 23 25 25 26 28 30 32 34 36 38 41 42 44 46 48 51 52 51 52 52 51 51 50 50 52 51 51 51 49 46 44 40 36 38
25 25 24 24 24 25 26 27 28 31 34 36 39 41 42 43 45 48 50 52 52 52 53 55 55 55 55 54 55 56 55 54 50 48 44 40 34 35
27 27 27 28 28 29 29 30 32 33 36 37 40 42 43 44 48 50 51 50 52 54 57 59 61 62 62 61 58 57 59 56 53 48 44 40 37 32
29 30 30 31 32 32 32 33 36 37 38 39 39 42 43 46 51 51 51 53 55 57 59 62 65 66 64 63 62 60 61 59 55 49 44 40 37 33
30 31 31 32 33 33 34 36 38 39 40 41 40 42 46 50 53 53 55 56 58 59 61 63 65 65 64 64 63 60 54 52 50 45 42 39 35 32
32 33 34 34 35 35 38 40 41 42 42 42 42 44 48 52 53 53 54 56 57 59 61 61 61 61 65 66 64 56 47 43 42 40 38 37 35 32

GFSNE_500_spd_096.txt.gz
Wind_Speed
43 46 48 49 48 47 47 45 46 44 43 44 41 41 36 37 37 37 38 39 39 39 38 36 33 30 32 32 33 35 36 37 37 37 36 36 35 36
49 48 48 50 49 46 44 45 45 42 47 42 39 36 36 38 37 37 39 39 38 36 35 32 30 32 33 34 35 37 38 39 40 39 39 37 37 36
54 52 45 45 45 45 44 47 45 45 43 39 36 34 35 37 37 38 38 38 35 33 31 31 32 33 34 36 37 38 41 41 41 40 39 39 39 39
51 52 46 46 48 47 44 44 45 43 42 36 33 34 36 37 38 37 37 35 32 32 31 32 33 34 36 37 39 41 43 42 42 41 41 41 42 42
50 49 50 48 47 46 44 45 43 41 39 33 34 35 37 38 37 37 34 33 32 31 31 32 33 35 36 37 40 42 43 42 43 44 44 43 42 43
48 48 49 47 46 45 43 41 40 40 33 33 35 36 37 36 36 35 32 32 31 31 32 33 35 37 38 40 42 44 45 44 45 46 46 44 42 41
45 45 45 44 45 41 37 38 42 32 33 35 35 35 36 35 35 33 31 31 31 33 34 35 36 37 40 43 44 46 46 46 46 44 42 41 41 41
42 43 44 39 35 37 36 39 32 33 35 34 34 34 35 35 33 31 31 31 32 36 36 36 37 39 44 46 44 44 46 47 44 41 39 40 42 43
39 35 36 38 38 38 37 29 33 33 33 33 34 34 34 34 31 30 32 33 35 36 37 37 39 42 46 45 44 45 46 46 42 41 41 42 43 44
50 43 38 39 38 34 31 30 30 31 32 32 33 34 33 31 30 31 33 35 36 37 38 39 41 45 45 42 43 44 45 44 42 41 42 42 43 44
45 38 39 35 29 30 28 29 31 31 31 32 33 33 30 30 30 32 33 34 36 39 40 42 44 46 41 42 44 42 42 42 41 41 42 41 42 42
35 33 28 28 27 27 28 30 30 30 30 32 31 30 29 30 31 32 34 36 38 40 42 44 47 45 42 44 44 42 41 40 39 39 41 42 43 44
25 26 28 27 26 27 27 28 28 29 29 29 28 28 29 30 31 32 35 38 40 41 43 45 48 45 44 46 47 46 45 43 42 43 43 43 45 45
29 27 25 26 26 25 26 27 27 27 27 26 26 27 28 29 32 34 37 39 41 43 44 47 48 46 46 47 48 49 48 47 47 48 46 45 45 46
27 26 25 25 25 25 25 25 27 27 29 28 27 28 29 31 34 36 38 40 42 44 47 49 49 47 47 48 48 51 51 51 51 51 50 49 48 47
27 25 24 24 24 24 25 26 27 28 27 27 29 30 31 33 35 37 39 42 43 45 48 50 49 49 50 51 52 53 55 54 57 57 55 53 52 50
26 25 24 24 24 25 26 27 27 27 27 29 30 30 32 34 36 38 40 42 44 48 50 49 49 52 54 56 56 59 59 60 60 61 59 56 53 50
27 26 25 26 25 26 27 27 27 27 28 29 29 32 33 36 38 39 41 42 46 50 51 52 55 57 57 57 60 61 62 62 62 61 60 56 52 51
28 28 28 27 28 28 27 27 28 29 30 31 33 35 37 38 40 41 42 44 49 52 52 54 56 56 56 57 59 61 62 63 63 63 63 60 53 51
31 31 29 29 29 28 29 30 30 32 34 34 35 37 38 40 42 42 43 46 50 51 53 55 54 56 58 59 58 59 62 63 65 66 63 54 49 46
34 33 33 32 32 31 30 32 34 34 35 36 37 39 40 42 43 42 44 47 49 51 52 53 54 58 61 59 55 55 60 63 62 58 51 43 40 38
36 36 36 35 35 33 33 35 37 37 38 39 40 40 42 44 44 42 45 47 49 50 50 52 57 60 60 55 51 52 56 58 56 48 42 35 30 29
37 37 37 38 38 36 37 39 41 42 41 42 42 43 43 45 43 42 45 46 48 49 49 54 58 59 57 52 49 52 54 54 50 43 39 34 27 24

GFSNE_500_spd_099.txt.gz
Wind_Speed
39 39 42 41 43 45 46 46 47 45 43 41 43 44 43 46 42 40 35 37 39 39 38 38 36 34 30 30 31 30 31 32 33 33 36 37 37 35
43 42 44 45 48 49 50 49 45 45 45 45 45 44 46 44 41 35 34 38 38 38 38 36 33 31 30 30 31 32 33 35 34 37 38 39 39 38
47 50 52 54 54 51 50 50 47 47 47 47 43 43 43 39 35 33 36 38 38 38 36 33 32 30 30 32 33 34 35 36 39 40 42 42 40 39
49 48 49 50 48 49 49 48 48 49 48 46 45 41 38 36 32 35 38 37 37 36 35 32 31 30 32 35 35 37 37 39 41 42 43 42 41 42
49 49 50 51 51 49 47 48 49 48 47 44 42 37 36 30 34 37 37 37 37 34 33 31 31 32 35 36 36 37 38 41 42 42 42 43 44 43
43 44 48 49 48 46 47 47 47 44 45 37 36 40 32 33 36 35 35 36 35 33 32 31 32 34 35 37 38 38 41 43 42 42 43 44 45 43
44 44 45 46 47 46 45 45 44 39 37 38 39 32 34 35 35 34 34 36 33 33 31 32 34 36 37 38 38 40 43 42 41 41 41 43 44 41
47 48 46 41 38 39 41 37 33 37 35 39 30 34 34 35 34 33 34 34 32 32 32 33 35 36 37 38 39 43 42 40 40 40 39 40 41 41
45 48 45 45 45 42 37 38 36 33 35 30 34 31 33 34 32 33 34 33 31 32 33 34 35 37 38 39 41 44 40 40 41 40 39 39 39 40
46 41 43 47 48 52 49 36 34 34 32 31 30 31 33 32 32 33 32 30 31 32 33 35 37 38 39 41 44 44 40 41 42 42 42 42 41 40
40 42 44 43 41 44 35 35 29 29 29 30 31 31 31 31 31 31 29 30 31 31 34 34 36 38 40 43 46 46 42 42 44 44 43 43 43 43
41 41 39 36 35 35 33 26 28 28 29 30 30 29 29 29 29 28 28 29 30 33 34 35 38 40 42 45 48 46 44 45 46 45 44 45 45 45
36 32 33 32 28 27 26 27 28 29 29 29 27 27 27 27 27 28 28 29 32 33 35 37 39 41 44 47 49 47 49 50 50 50 50 50 49 49
34 33 31 30 28 26 27 28 28 28 27 26 26 26 28 29 29 28 29 31 32 34 37 39 40 42 46 48 50 51 54 56 56 56 55 53 53 53
32 29 31 28 28 28 28 28 27 26 26 26 26 28 29 29 29 29 29 31 34 36 38 39 40 44 48 48 50 55 57 58 57 57 57 58 57 57
31 30 29 29 29 28 28 27 26 25 26 27 29 30 30 30 29 29 30 33 36 38 39 40 42 46 47 50 53 54 56 56 59 61 59 58 58 58
28 27 29 28 28 28 27 26 25 27 28 29 29 30 30 30 30 31 33 36 38 39 41 41 43 45 49 52 52 53 56 61 61 58 56 56 59 60
28 29 28 28 28 27 27 26 27 27 28 29 29 31 31 31 32 34 35 37 40 41 42 42 44 46 50 51 51 56 61 62 60 55 55 59 58 62
27 28 30 29 28 29 29 28 28 29 30 31 31 31 33 34 34 35 37 39 42 43 42 43 45 47 50 50 53 58 61 61 56 53 58 61 60 58
31 31 30 30 31 31 31 31 30 30 32 35 35 34 35 36 38 39 40 42 43 43 42 43 45 48 52 51 54 60 62 58 52 52 58 58 58 51
31 31 31 32 34 34 35 33 33 34 34 35 37 37 37 38 40 42 43 44 44 43 41 43 45 48 51 52 55 58 59 57 51 51 56 56 54 48
31 31 33 35 35 37 38 38 38 38 39 39 39 39 41 42 42 43 44 46 44 40 40 43 46 48 51 52 53 56 57 54 51 51 54 56 50 45
33 34 35 36 37 39 39 40 41 43 43 43 43 43 42 43 43 44 44 46 44 37 39 42 45 48 50 51 53 56 55 51 48 49 52 54 50 45

GFSNE_500_spd_102.txt.gz
Wind_Speed
35 40 36 32 35 37 36 40 44 44 45 43 44 43 44 44 43 42 42 42 38 34 33 33 36 36 35 33 30 27 27 27 29 31 31 31 33 34
37 35 33 35 39 41 42 44 46 47 46 43 43 43 43 44 44 42 40 39 35 32 34 34 37 35 33 31 29 27 28 30 31 32 32 34 35 36
39 40 42 42 43 45 46 47 46 45 44 45 44 44 44 45 43 41 37 34 33 33 33 37 35 34 31 29 28 29 31 31 33 34 35 37 37 38
46 45 45 47 43 45 45 46 47 48 47 44 45 44 44 43 42 34 34 30 32 35 35 35 33 32 29 27 28 29 31 32 35 36 38 39 39 38
44 43 43 42 41 42 43 45 46 47 46 44 44 44 41 43 34 34 32 30 35 34 34 32 31 30 28 28 29 30 32 34 36 37 39 39 38 38
48 47 48 45 42 42 42 41 43 45 45 44 42 39 41 33 36 33 29 33 33 33 32 31 30 28 28 29 30 31 33 35 36 39 39 38 38 38
49 50 48 46 45 44 45 44 42 40 39 41 40 33 34 35 32 27 32 32 31 31 30 29 28 28 29 30 31 32 34 36 38 40 39 38 39 39
51 49 49 47 45 48 46 43 40 41 37 32 33 36 33 29 27 31 31 30 28 30 28 26 27 29 29 30 32 33 35 37 40 41 40 40 40 41
53 52 48 45 47 48 47 46 46 47 45 45 43 37 31 30 29 30 29 28 28 28 26 26 28 28 30 31 32 34 36 39 42 42 40 40 42 44
51 49 48 47 47 44 41 41 43 46 44 44 31 27 29 29 28 27 27 27 27 26 25 26 26 29 30 32 33 35 38 41 43 43 41 43 46 47
48 46 46 45 40 39 41 45 42 40 40 33 28 27 27 27 26 26 26 26 25 25 25 25 27 30 31 34 36 37 40 43 44 43 45 48 50 51
42 41 40 38 40 41 41 39 34 32 30 26 26 25 26 26 25 25 25 25 24 26 26 27 29 31 34 36 38 39 42 44 45 48 51 51 50 48
34 36 35 36 40 37 35 32 31 29 27 26 25 25 25 25 24 24 25 26 25 26 26 28 31 33 36 38 39 41 43 44 49 52 48 46 50 53
34 34 34 37 38 35 35 27 28 29 26 25 25 25 25 24 24 25 25 25 26 26 27 29 32 34 37 38 40 42 42 47 51 49 48 53 55 54
33 34 35 35 34 32 33 32 26 25 26 25 26 25 25 25 25 27 26 26 27 27 29 33 34 35 37 38 41 43 45 50 52 51 53 56 55 52
32 33 33 35 35 32 30 25 27 28 26 26 26 25 26 26 28 27 27 28 28 30 32 34 36 37 37 39 41 44 46 50 53 54 56 56 54 50
31 30 32 36 31 32 30 29 30 27 25 26 26 27 27 27 28 27 28 29 31 32 34 36 38 38 38 39 41 44 47 51 53 55 55 56 52 50
30 30 29 27 29 30 29 30 28 25 26 27 27 27 27 27 28 30 31 33 34 34 36 38 40 39 39 40 40 45 48 51 52 55 55 54 49 50
33 30 28 27 26 28 30 30 28 27 28 29 28 28 29 30 32 34 34 35 36 37 38 40 41 40 38 39 43 43 47 51 52 55 55 54 47 48
23 25 26 27 29 32 33 31 29 29 31 32 31 30 30 33 34 35 35 37 37 39 40 41 41 40 37 38 41 45 47 49 48 52 52 52 46 48
26 27 28 30 33 35 34 32 31 33 35 35 35 34 33 35 36 35 36 38 40 41 42 43 41 43 37 38 40 44 49 50 48 50 51 50 44 46
30 30 31 33 35 35 33 33 34 36 37 39 39 39 40 40 41 40 40 42 42 42 43 43 44 42 36 37 38 42 46 49 49 50 51 52 45 40
31 32 33 34 36 36 34 34 36 37 39 40 40 41 42 44 45 42 42 42 43 44 44 43 44 41 36 36 37 39 44 48 49 50 53 52 51 43

GFSNE_500_spd_105.txt.gz
Wind_Speed
37 41 51 39 39 40 40 33 35 34 38 39 42 43 43 44 44 42 42 42 40 38 33 31 29 29 30 31 32 30 29 26 24 25 27 27 28 27
47 42 39 35 34 37 37 41 46 42 39 41 42 43 44 46 46 45 43 42 38 35 30 28 29 27 31 31 30 28 26 24 24 26 27 28 29 30
32 33 34 36 39 44 42 42 43 42 43 42 43 44 46 47 46 45 42 37 34 30 27 27 27 30 30 29 28 26 24 24 25 26 28 29 31 32
46 50 51 49 48 48 44 43 40 41 44 44 43 45 47 46 45 43 39 36 30 31 28 27 30 30 29 27 26 24 24 25 26 26 29 31 32 33
45 48 47 45 41 42 42 42 42 40 41 42 41 40 43 44 42 38 33 31 32 28 26 29 29 29 27 25 23 24 25 26 26 28 30 32 34 36
40 40 40 42 43 45 46 46 45 45 45 45 40 38 38 37 38 34 32 32 30 26 26 28 28 28 26 23 23 24 25 26 28 29 32 34 35 36
42 43 44 45 46 46 46 46 46 46 47 45 40 39 36 36 33 33 37 28 26 26 27 26 27 26 24 23 24 24 25 27 28 31 33 35 36 37
48 50 48 50 50 51 50 49 47 48 48 43 39 40 41 42 39 40 27 25 26 26 26 27 26 24 23 23 23 25 26 28 30 33 35 36 38 39
54 53 51 51 50 50 52 50 48 48 43 40 39 40 39 41 41 36 27 29 26 27 28 26 24 23 22 22 24 26 28 30 32 34 36 37 38 39
53 52 52 51 49 47 46 48 46 45 38 38 40 40 37 35 34 27 28 26 26 27 26 24 22 22 22 23 26 29 31 32 34 36 36 36 40 44
45 46 47 47 46 44 42 42 41 36 35 39 39 33 30 29 28 27 26 25 26 24 23 22 22 22 24 25 28 30 32 34 35 36 35 39 45 47
44 41 40 41 39 36 36 34 35 35 36 37 33 29 27 26 28 24 24 24 23 22 23 23 23 24 25 27 29 31 32 34 36 37 37 42 46 49
38 38 39 39 36 35 34 35 32 32 32 33 29 27 29 26 25 23 24 22 22 24 23 23 24 25 26 29 31 33 34 34 36 38 39 43 48 51
38 37 37 36 35 35 33 32 32 32 32 29 28 29 27 25 23 24 23 23 24 23 23 24 25 26 29 32 33 35 35 35 35 38 40 45 48 52
34 34 33 33 33 32 32 32 33 31 30 29 31 28 25 23 24 25 24 25 25 24 24 25 27 29 31 33 35 36 36 36 35 38 42 45 49 52
35 28 29 31 30 31 32 30 29 31 29 28 27 25 22 24 25 25 26 27 26 25 26 28 30 31 32 34 36 37 37 37 36 38 42 46 49 51
34 36 38 32 30 29 29 33 33 28 28 26 26 25 22 25 25 26 28 28 27 27 29 31 32 33 34 36 37 38 37 37 36 38 42 46 48 51
30 29 32 29 29 28 26 27 31 30 28 28 29 24 24 25 26 27 29 29 29 30 31 32 32 33 36 38 38 38 38 38 37 39 42 44 47 50
34 32 30 32 34 30 28 28 29 29 31 32 28 26 26 26 27 29 30 32 32 33 33 34 34 35 38 39 39 38 41 38 37 38 41 44 45 49
25 26 26 27 26 28 28 27 28 30 33 32 30 29 29 29 31 33 33 33 33 32 33 35 36 37 40 40 40 41 42 37 36 37 40 43 46 48
23 24 24 24 25 25 26 28 31 34 36 35 33 32 32 34 35 36 36 36 36 36 38 39 39 39 41 41 41 42 44 38 35 36 39 42 46 49
27 29 30 30 30 30 30 31 34 38 38 36 34 34 35 36 38 40 41 42 42 41 41 41 40 40 42 42 40 43 43 40 37 38 40 40 44 46
28 30 32 33 33 33 33 34 34 36 38 38 37 36 37 38 39 41 41 42 42 41 40 40 40 42 44 42 39 40 41 40 39 41 42 41 44 46

GFSNE_500_spd_108.txt.gz
Wind_Speed
41 45 48 41 37 40 42 37 37 41 43 33 37 39 39 40 43 46 47 48 48 46 44 41 38 34 32 27 27 25 29 27 24 24 22 22 24 25
49 48 49 49 51 42 39 40 40 43 42 43 40 40 40 41 44 47 49 51 48 45 40 34 37 31 30 27 25 28 28 26 24 21 22 23 24 25
48 44 44 43 39 39 38 39 42 44 43 42 42 41 40 43 45 46 49 47 45 39 34 34 33 31 25 24 29 27 25 24 22 22 23 24 25 26
44 42 44 43 44 53 58 54 57 46 44 39 41 42 44 44 44 43 42 37 35 34 32 29 31 27 26 28 26 25 23 22 22 23 23 23 26 27
48 46 43 42 46 44 45 44 43 43 44 46 46 45 46 48 44 43 38 35 36 32 29 29 28 24 27 26 25 25 22 23 22 22 23 25 26 28
41 39 39 39 40 41 42 43 44 46 48 49 50 48 48 47 42 41 38 37 33 31 32 29 25 26 25 25 26 23 22 23 22 23 24 25 27 29
39 40 40 41 43 45 46 47 49 49 51 52 51 50 49 45 41 39 39 38 38 37 30 25 25 25 25 27 25 23 22 22 23 24 25 27 28 30
44 45 47 48 48 51 52 53 52 52 51 51 52 49 48 46 40 41 40 38 38 36 27 24 22 24 26 26 23 22 22 23 24 25 27 28 30 33
47 49 50 51 52 53 54 53 53 51 50 49 49 46 46 42 40 40 37 41 40 30 29 24 24 26 25 24 23 23 23 23 24 26 28 30 32 33
51 51 50 51 52 52 50 50 49 49 48 47 46 42 40 40 39 38 39 35 34 29 26 25 22 25 23 23 23 23 23 23 25 26 28 30 33 34
49 48 47 46 47 45 45 43 42 42 44 42 38 37 39 37 38 36 33 33 30 30 26 20 24 23 23 24 24 24 24 24 26 27 29 31 34 35
45 45 43 41 38 40 42 42 41 40 37 36 37 38 37 37 34 33 31 31 31 24 21 23 23 23 24 25 25 25 24 26 28 30 31 33 34 35
41 41 39 39 40 41 41 39 38 39 39 40 36 37 37 34 33 35 31 31 26 20 22 23 22 23 24 26 26 26 26 28 29 31 32 34 35 35
38 39 38 37 34 34 35 35 35 36 37 37 35 36 36 34 33 33 31 27 22 22 24 22 23 24 26 26 28 28 28 30 31 33 34 36 35 36
38 35 35 35 32 33 34 32 35 32 33 35 37 37 34 33 33 31 29 23 22 24 24 24 24 26 27 27 29 30 30 32 33 34 36 37 37 37
37 37 36 35 35 32 31 32 34 33 35 37 37 36 34 32 33 30 26 22 24 25 26 26 27 28 28 29 30 32 34 34 34 36 36 38 39 38
36 35 34 35 32 35 37 34 31 33 35 34 36 32 33 33 32 29 24 23 25 27 27 29 30 30 30 30 32 34 36 36 35 36 38 40 40 39
33 34 33 32 31 31 29 28 28 32 32 34 33 34 32 30 31 28 26 26 26 28 29 31 32 33 32 32 34 36 37 37 36 38 39 41 41 40
33 33 30 32 30 32 30 30 32 33 29 31 31 31 32 31 33 30 28 28 28 29 30 32 34 34 34 35 35 37 38 38 38 40 40 41 39 40
31 30 29 29 28 29 29 31 32 31 31 29 29 31 33 35 36 32 30 30 30 31 33 33 33 34 35 36 38 39 39 39 40 42 41 42 39 40
31 31 30 29 28 26 26 26 28 28 28 29 33 34 35 37 37 34 33 33 34 35 36 37 37 39 39 39 39 40 40 40 42 41 42 41 40 41
34 32 33 31 31 32 31 30 30 30 30 30 31 31 34 37 38 37 36 36 37 38 40 40 41 41 41 40 38 37 40 41 39 37 38 40 40 41
36 35 35 35 33 32 33 34 34 34 33 34 34 33 34 38 40 39 37 37 38 39 40 40 42 43 42 38 36 38 40 39 38 38 40 39 39 40

GFSNE_500_spd_111.txt.gz
Wind_Speed
43 43 45 40 40 41 47 47 50 43 39 41 39 38 34 37 37 36 37 42 44 46 48 49 49 46 41 35 36 30 28 25 24 27 25 24 21 22
46 45 47 52 54 48 53 55 45 37 39 37 36 39 39 41 37 38 38 42 45 45 47 45 40 39 35 34 34 28 24 24 26 25 23 21 22 22
47 36 36 40 43 51 49 50 39 39 43 45 46 44 44 39 38 39 41 44 44 43 41 37 35 34 33 31 31 26 24 26 25 24 21 21 22 21
36 42 46 43 40 41 46 44 49 55 59 62 47 47 41 40 42 43 43 44 44 43 39 36 36 34 29 30 28 26 23 26 23 21 22 21 22 21
46 55 47 45 49 48 43 43 43 45 46 46 44 43 46 46 46 47 46 45 42 40 38 38 32 30 33 32 25 24 24 25 22 20 21 21 22 22
45 44 45 44 44 44 43 43 43 45 46 47 48 50 51 51 50 49 48 45 42 41 38 38 35 34 36 25 24 23 24 24 21 21 21 22 23 22
40 39 40 41 42 44 46 46 48 51 52 52 54 55 55 52 51 50 48 45 40 40 40 39 35 36 29 28 24 24 25 23 22 21 21 22 22 23
44 45 45 47 47 50 52 53 54 55 54 55 57 55 55 54 53 48 46 43 38 40 39 37 37 36 34 29 25 24 24 23 22 21 22 22 23 24
46 49 52 53 54 55 55 54 54 54 55 56 56 55 52 51 47 46 43 38 39 40 38 37 35 35 30 27 23 24 23 23 22 22 22 22 24 25
50 52 53 53 52 51 52 53 52 51 52 50 49 47 46 47 44 42 37 38 40 38 38 35 34 31 30 23 23 24 23 22 22 23 23 24 26 27
51 52 52 51 50 51 50 49 49 48 44 44 45 42 42 43 41 38 39 39 37 37 36 34 35 33 26 22 25 24 23 23 23 24 24 26 28 29
46 46 45 45 46 46 45 44 44 42 43 41 41 41 41 40 39 39 38 39 33 35 35 32 32 29 21 23 24 24 24 24 24 25 27 28 29 30
40 40 39 40 41 43 42 41 39 38 37 38 38 37 35 36 36 35 38 33 34 36 33 28 29 22 22 24 24 24 25 25 25 26 28 29 30 32
41 43 42 42 41 40 39 39 35 33 34 33 35 34 32 32 34 37 38 37 37 34 30 31 24 23 24 24 25 25 26 26 26 28 29 31 32 33
43 42 42 42 42 39 38 38 37 36 32 34 34 32 31 31 32 34 34 33 32 31 32 27 24 26 25 25 27 28 28 27 28 29 31 32 33 35
42 42 41 41 40 38 38 38 38 36 35 34 36 35 35 34 37 36 34 30 31 34 31 26 26 28 27 27 29 30 30 29 30 32 34 34 35 36
41 41 40 39 40 37 38 35 33 32 35 32 27 28 30 30 32 34 31 32 34 34 32 28 28 29 30 30 31 32 32 32 32 33 34 35 36 37
40 40 38 38 40 39 38 36 34 34 30 29 26 28 30 31 32 30 31 35 37 36 33 30 31 31 32 32 33 33 33 33 34 35 36 37 38 39
41 40 37 37 38 37 36 34 36 32 32 32 29 31 31 29 29 31 34 37 37 37 35 33 33 32 32 33 33 34 34 34 36 37 39 39 39 42
42 41 39 37 37 36 35 34 33 32 32 33 34 32 33 29 29 33 35 36 37 39 37 35 33 31 31 32 32 34 35 36 38 39 40 39 39 42
41 41 41 39 38 37 35 33 32 30 30 31 31 30 29 29 31 32 34 35 37 40 39 37 34 33 35 34 36 37 38 39 40 40 38 37 39 39
37 38 40 40 40 39 37 35 34 33 33 33 31 31 32 32 31 32 33 33 38 41 41 40 38 37 36 36 37 39 40 40 40 37 37 37 37 37
41 39 38 39 40 40 39 37 36 35 34 35 35 35 34 34 35 34 34 34 36 41 43 42 40 39 39 39 40 41 40 40 39 38 38 38 38 39

GFSNE_500_spd_114.txt.gz
Wind_Speed
35 37 38 39 42 43 43 47 51 45 47 51 55 55 53 47 36 40 39 38 35 37 37 38 37 37 37 36 35 34 31 29 26 23 22 22 23 21
39 39 39 41 44 45 45 43 45 46 46 55 47 40 34 32 39 47 45 40 37 38 40 41 36 35 35 33 35 33 30 28 30 26 20 23 23 19
43 43 46 44 40 43 38 39 45 43 42 42 40 38 47 49 56 56 49 40 40 41 42 41 39 36 34 34 35 31 28 28 28 25 22 23 21 18
45 47 44 43 38 42 45 53 47 45 47 50 50 56 56 53 47 47 43 42 43 44 43 41 43 36 33 34 28 27 31 28 28 19 22 23 20 18
48 47 44 45 47 44 46 46 46 48 50 49 46 44 47 48 46 46 47 46 47 47 44 41 42 36 33 33 30 29 33 28 19 21 23 21 19 19
43 43 43 43 44 44 45 45 47 48 49 47 48 47 49 51 52 52 52 51 50 45 41 41 38 35 34 35 32 29 26 24 21 21 23 21 20 19
33 34 37 39 39 40 43 47 51 53 53 54 55 56 54 55 56 55 55 54 50 45 42 39 36 35 36 36 32 27 27 24 23 22 22 21 20 19
30 32 35 36 38 42 46 51 55 57 59 59 59 57 55 54 53 54 54 51 48 43 39 37 37 37 37 35 33 31 31 28 22 23 22 21 20 19
34 37 38 41 45 48 51 53 54 55 56 55 54 54 52 52 52 50 48 45 42 42 40 36 36 37 35 35 34 33 36 26 21 24 22 21 21 21
39 42 44 47 49 52 54 55 55 55 54 52 52 51 50 48 44 43 42 41 40 39 38 36 36 35 37 33 35 32 29 21 23 23 22 22 23 22
43 45 48 50 50 51 50 47 47 48 48 48 47 46 45 43 43 42 41 40 39 37 36 36 35 37 34 35 35 34 25 21 24 24 23 24 23 24
47 49 51 50 49 46 43 42 43 43 45 45 44 43 41 40 39 37 38 37 35 33 33 33 38 34 34 35 31 29 21 23 24 24 24 24 25 27
50 50 49 48 46 45 46 45 44 44 44 41 40 37 35 34 33 33 34 32 29 29 31 35 35 31 32 26 29 23 22 24 25 25 24 25 28 28
48 48 46 44 45 46 45 45 44 44 41 40 37 35 35 33 33 33 32 31 30 30 32 35 34 31 26 29 27 21 25 25 25 25 25 28 30 30
49 46 44 44 44 43 43 43 43 42 40 40 38 35 36 32 34 34 31 30 29 29 30 32 29 26 29 32 26 24 26 26 26 26 27 29 31 32
46 43 44 44 43 42 41 40 42 41 40 39 35 35 36 34 35 31 31 31 29 28 27 23 23 27 35 33 27 27 27 28 29 27 29 33 33 33
41 42 43 43 43 41 41 41 40 41 38 38 34 30 31 32 29 27 27 26 26 24 21 21 26 31 36 33 29 30 31 31 29 30 31 34 35 34
39 40 41 42 42 42 42 40 38 38 36 35 34 37 35 30 29 28 29 27 24 22 23 26 30 33 37 35 32 33 35 34 32 32 34 35 36 36
41 41 42 42 41 42 42 40 40 37 36 35 33 32 32 33 32 30 31 28 25 26 28 29 31 34 39 38 35 35 35 34 33 33 34 35 36 37
41 42 43 42 42 42 41 41 40 37 36 34 33 31 31 33 34 35 32 31 32 30 28 30 33 36 40 39 38 36 33 31 31 33 34 34 37 39
38 38 38 39 38 38 39 40 40 40 39 36 33 33 33 31 32 33 32 31 33 32 31 34 35 35 38 39 37 35 33 32 33 35 37 37 38 39
41 43 44 45 44 43 42 40 40 40 40 38 36 34 35 34 33 32 33 33 35 34 33 34 33 32 35 39 40 39 37 37 39 39 39 38 39 39
47 48 50 51 50 47 45 44 42 40 40 40 40 37 36 35 36 36 36 37 37 36 36 36 36 33 34 39 40 40 41 43 43 42 41 39 39 37

GFSNE_500_spd_117.txt.gz
Wind_Speed
25 28 30 32 32 33 34 38 40 40 42 43 44 44 49 50 57 52 43 38 36 40 40 41 37 39 40 35 31 30 29 29 31 26 27 20 20 18
30 33 34 33 32 35 38 41 42 44 42 38 41 43 43 44 44 48 43 43 48 50 50 45 34 36 37 35 31 29 29 31 30 24 25 24 24 18
37 37 35 35 35 37 41 42 45 44 42 42 44 44 47 49 45 51 58 54 53 53 45 40 40 38 37 38 33 30 29 29 25 25 28 26 21 18
39 36 33 36 37 38 43 44 45 43 44 45 46 45 48 50 52 52 52 51 47 45 43 42 43 42 39 37 35 31 29 28 26 26 29 27 20 19
33 33 36 37 38 40 42 41 41 42 40 41 41 43 46 48 49 49 50 50 50 51 50 49 47 45 42 39 36 31 31 30 27 27 24 21 21 19
33 36 37 39 39 39 37 32 32 33 36 40 43 46 50 53 55 55 54 54 53 52 52 50 49 47 42 39 35 34 33 29 25 29 23 24 21 21
35 37 35 33 29 29 30 31 34 38 41 46 50 51 52 52 53 54 54 53 52 51 50 49 45 40 38 37 36 36 34 31 27 28 27 25 21 23
37 34 32 31 31 32 33 35 39 43 47 50 51 52 52 53 53 51 50 50 49 48 47 43 40 37 37 35 36 37 33 32 30 31 32 24 22 24
34 32 33 33 33 34 36 38 44 48 49 50 50 50 50 50 49 48 47 47 45 42 39 37 37 36 36 35 35 34 31 32 32 34 33 23 24 25
34 35 35 34 36 38 40 42 47 48 47 47 47 46 45 46 46 44 43 42 40 38 37 36 36 35 35 34 33 32 32 33 33 35 32 22 25 26
36 36 37 37 38 41 43 45 46 45 47 47 46 45 45 46 43 40 40 37 35 36 36 35 34 34 32 30 30 32 35 32 34 32 26 23 27 27
39 38 38 40 40 41 42 45 46 46 46 46 44 42 42 43 41 39 36 33 32 31 32 32 31 29 28 27 29 35 33 32 33 31 24 25 28 28
38 39 40 43 43 43 45 44 46 46 45 44 41 41 41 41 39 36 35 35 33 32 33 30 31 27 25 27 35 34 32 27 30 28 24 27 29 28
40 41 44 44 45 46 46 47 45 45 43 41 39 40 41 40 38 37 35 35 32 32 31 28 27 26 26 27 29 25 25 28 31 26 25 28 29 28
41 43 46 47 47 47 45 45 45 44 42 41 40 40 41 40 38 36 36 36 36 36 31 27 26 27 26 24 23 23 26 31 29 26 28 28 29 29
43 44 46 46 44 44 44 44 43 42 41 41 41 40 41 38 34 34 33 34 34 30 29 29 26 25 23 22 23 24 29 32 30 28 28 29 29 30
44 44 44 43 44 42 41 39 40 40 41 41 41 39 38 35 33 33 33 32 30 27 27 26 26 23 21 23 24 25 33 36 31 29 29 31 31 31
41 42 42 42 41 40 39 38 38 38 39 40 39 38 37 35 32 32 33 32 30 29 28 28 26 24 24 24 25 28 36 39 33 32 32 33 33 34
41 41 41 41 41 40 38 39 38 37 39 39 38 38 37 35 32 31 31 32 34 31 29 27 29 28 27 27 27 31 37 40 39 36 36 37 37 36
42 41 41 41 42 40 38 38 38 38 38 38 39 39 38 37 35 32 30 30 32 32 32 32 33 32 29 27 29 32 35 40 41 38 37 37 37 35
41 41 42 40 39 39 40 42 43 43 43 42 41 40 39 39 38 35 33 32 31 31 31 35 34 32 32 29 29 32 33 37 41 39 38 36 35 36
40 40 41 42 42 44 45 46 47 47 47 44 43 42 41 40 39 39 37 34 34 34 33 35 35 35 34 33 33 34 34 36 39 40 39 39 40 41
41 42 44 47 49 51 52 53 54 54 50 47 45 44 42 41 40 40 40 39 37 36 37 37 37 36 37 38 37 36 37 38 37 39 39 41 44 44